Darstellungsparameter: Aktuell verwendete Einstellungen:
Skalierung der Graphiken ... ?
xyx+y,   Skalierungsfaktor:      Skalierung: Modus: x, Faktor: 1
Darstellungszeitraum ... ?
Vom - - bis: - -   Zeitraum: 11.02.2019 - 15.02.2019
Min/Max/Avg-Anzeige ... ?
Zeige MMA aktuell
Zeige MMA Monat
Zeige MMA alles
Zeige --A aktuell
Zeige --A Monat
Zeige --A alles
Keine MMA-Anzeige
MMA:
Minimum Maximum Average (ber die Originaldaten)
MMA-Basis: 11.02.2019 - 15.02.2019
Quicknavigation für Darstellung... ?
Tage:      1T, 2T, 3T, 5T -1T -2T -3T -5T +1T +2T +3T +5T
Wochen: 1W, 2W, 3W -1W -2W -3W +1W +2W +3W
Monate: 1M, 3M, 6M -1M -3M -6M +1M +3M +6M
Jahre:    1J, 3J, 5J, 10J -1J -3J -5J -10J +1J +3J +5J +10J
Nutze für die Darstellung ... ?
Originaldaten oder Mittelwerte auf ...
Stundenbasis Tagesbasis Wochenbasis
Monatsbasis Jahresbasis      Datenbasis: Original-Daten
Darstellen als:
Statistik (Auto) Statistik J:M      Darstellung:
Zur Graphik,    zurück zur Übersicht aller Sensoren.
 
Tabellarische Datenbersicht: ?
 
Sensor: Nr:Datum:Temp:Feuchte:Taupunkt:
Aussen-T/F 1 11-02-2019 00:00:00 5.3 C 87 % 3.32 C
2 11-02-2019 00:05:00 5.2 C 88 % 3.38 C
3 11-02-2019 00:10:00 5.1 C 88 % 3.28 C
4 11-02-2019 00:15:00 5.1 C 88 % 3.28 C
5 11-02-2019 00:20:00 5.1 C 89 % 3.44 C
6 11-02-2019 00:25:00 5 C 89 % 3.34 C
7 11-02-2019 00:30:00 4.9 C 89 % 3.24 C
8 11-02-2019 00:35:00 4.9 C 89 % 3.24 C
9 11-02-2019 00:40:00 4.9 C 90 % 3.4 C
10 11-02-2019 00:45:00 4.8 C 90 % 3.3 C
11 11-02-2019 00:50:00 4.7 C 90 % 3.2 C
12 11-02-2019 00:55:00 4.6 C 91 % 3.26 C
13 11-02-2019 01:00:00 4.6 C 91 % 3.26 C
14 11-02-2019 01:05:00 4.4 C 91 % 3.06 C
15 11-02-2019 01:10:00 4.4 C 92 % 3.22 C
16 11-02-2019 01:15:00 4.3 C 92 % 3.12 C
17 11-02-2019 01:20:00 4.3 C 92 % 3.12 C
18 11-02-2019 01:25:00 4.3 C 93 % 3.27 C
19 11-02-2019 01:30:00 4.3 C 93 % 3.27 C
20 11-02-2019 01:35:00 4.2 C 93 % 3.17 C
21 11-02-2019 01:40:00 4.2 C 93 % 3.17 C
22 11-02-2019 01:45:00 4.2 C 93 % 3.17 C
23 11-02-2019 01:50:00 4.2 C 93 % 3.17 C
24 11-02-2019 01:55:00 4.2 C 93 % 3.17 C
25 11-02-2019 02:00:00 4.2 C 93 % 3.17 C
Sensor: Nr:Datum:Temp:Feuchte:Taupunkt:
Aussen-T/F 26 11-02-2019 02:05:00 4.2 C 93 % 3.17 C
27 11-02-2019 02:10:00 4.1 C 93 % 3.07 C
28 11-02-2019 02:15:00 4 C 93 % 2.97 C
29 11-02-2019 02:20:00 3.9 C 93 % 2.87 C
30 11-02-2019 02:25:00 3.9 C 93 % 2.87 C
31 11-02-2019 02:30:00 3.9 C 93 % 2.87 C
32 11-02-2019 02:35:00 3.8 C 93 % 2.77 C
33 11-02-2019 02:40:00 3.8 C 93 % 2.77 C
34 11-02-2019 02:45:00 3.8 C 94 % 2.93 C
35 11-02-2019 02:50:00 3.8 C 94 % 2.93 C
36 11-02-2019 02:55:00 3.8 C 94 % 2.93 C
37 11-02-2019 03:00:00 3.9 C 94 % 3.02 C
38 11-02-2019 03:05:00 3.9 C 94 % 3.02 C
39 11-02-2019 03:10:00 3.9 C 94 % 3.02 C
40 11-02-2019 03:15:00 4 C 94 % 3.12 C
41 11-02-2019 03:20:00 4.1 C 94 % 3.22 C
42 11-02-2019 03:25:00 4 C 93 % 2.97 C
43 11-02-2019 03:30:00 3.9 C 93 % 2.87 C
44 11-02-2019 03:35:00 3.7 C 92 % 2.52 C
45 11-02-2019 03:40:00 3.6 C 93 % 2.58 C
46 11-02-2019 03:45:00 3.6 C 93 % 2.58 C
47 11-02-2019 03:50:00 3.5 C 93 % 2.48 C
48 11-02-2019 03:55:00 3.5 C 93 % 2.48 C
49 11-02-2019 04:00:00 3.5 C 93 % 2.48 C
50 11-02-2019 04:05:00 3.5 C 93 % 2.48 C
Sensor: Nr:Datum:Temp:Feuchte:Taupunkt:
Aussen-T/F 51 11-02-2019 04:10:00 3.6 C 93 % 2.58 C
52 11-02-2019 04:15:00 3.6 C 94 % 2.73 C
53 11-02-2019 04:20:00 3.6 C 94 % 2.73 C
54 11-02-2019 04:25:00 3.6 C 94 % 2.73 C
55 11-02-2019 04:30:00 3.6 C 94 % 2.73 C
56 11-02-2019 04:35:00 3.6 C 94 % 2.73 C
57 11-02-2019 04:40:00 3.6 C 94 % 2.73 C
58 11-02-2019 04:45:00 3.7 C 94 % 2.83 C
59 11-02-2019 04:50:00 3.7 C 94 % 2.83 C
60 11-02-2019 04:55:00 3.7 C 94 % 2.83 C
61 11-02-2019 05:00:00 3.8 C 94 % 2.93 C
62 11-02-2019 05:05:00 3.8 C 94 % 2.93 C
63 11-02-2019 05:10:00 3.8 C 94 % 2.93 C
64 11-02-2019 05:15:00 3.9 C 94 % 3.02 C
65 11-02-2019 05:20:00 3.9 C 94 % 3.02 C
66 11-02-2019 05:25:00 3.9 C 94 % 3.02 C
67 11-02-2019 05:30:00 3.9 C 94 % 3.02 C
68 11-02-2019 05:35:00 3.9 C 94 % 3.02 C
69 11-02-2019 05:40:00 3.9 C 94 % 3.02 C
70 11-02-2019 05:45:00 3.8 C 94 % 2.93 C
71 11-02-2019 05:50:00 3.8 C 94 % 2.93 C
72 11-02-2019 05:55:00 3.8 C 94 % 2.93 C
73 11-02-2019 06:00:00 3.8 C 94 % 2.93 C
74 11-02-2019 06:05:00 3.8 C 94 % 2.93 C
75 11-02-2019 06:10:00 3.8 C 94 % 2.93 C
Sensor: Nr:Datum:Temp:Feuchte:Taupunkt:
Aussen-T/F 76 11-02-2019 06:15:00 3.8 C 94 % 2.93 C
77 11-02-2019 06:20:00 3.8 C 94 % 2.93 C
78 11-02-2019 06:25:00 3.8 C 94 % 2.93 C
79 11-02-2019 06:30:00 3.8 C 94 % 2.93 C
80 11-02-2019 06:35:00 3.8 C 94 % 2.93 C
81 11-02-2019 06:40:00 3.8 C 94 % 2.93 C
82 11-02-2019 06:45:00 3.9 C 94 % 3.02 C
83 11-02-2019 06:50:00 3.9 C 94 % 3.02 C
84 11-02-2019 06:55:00 3.9 C 94 % 3.02 C
85 11-02-2019 07:00:00 3.9 C 94 % 3.02 C
86 11-02-2019 07:05:00 3.9 C 94 % 3.02 C
87 11-02-2019 07:10:00 4 C 94 % 3.12 C
88 11-02-2019 07:15:00 4 C 93 % 2.97 C
89 11-02-2019 07:20:00 4.1 C 93 % 3.07 C
90 11-02-2019 07:25:00 4.1 C 93 % 3.07 C
91 11-02-2019 07:30:00 4.1 C 93 % 3.07 C
92 11-02-2019 07:35:00 4.1 C 92 % 2.92 C
93 11-02-2019 07:40:00 4.1 C 92 % 2.92 C
94 11-02-2019 07:45:00 4.1 C 92 % 2.92 C
95 11-02-2019 07:50:00 4.2 C 92 % 3.02 C
96 11-02-2019 07:55:00 4.2 C 91 % 2.87 C
97 11-02-2019 08:00:00 4.2 C 91 % 2.87 C
98 11-02-2019 08:05:00 4.2 C 91 % 2.87 C
99 11-02-2019 08:10:00 4.2 C 91 % 2.87 C
100 11-02-2019 08:15:00 4.1 C 91 % 2.77 C
Sensor: Nr:Datum:Temp:Feuchte:Taupunkt:
Aussen-T/F 101 11-02-2019 08:20:00 4.1 C 91 % 2.77 C
102 11-02-2019 08:25:00 4 C 91 % 2.67 C
103 11-02-2019 08:30:00 4 C 91 % 2.67 C
104 11-02-2019 08:35:00 4 C 91 % 2.67 C
105 11-02-2019 08:40:00 4 C 91 % 2.67 C
106 11-02-2019 08:45:00 4.1 C 91 % 2.77 C
107 11-02-2019 08:50:00 4.1 C 91 % 2.77 C
108 11-02-2019 08:55:00 4.1 C 91 % 2.77 C
109 11-02-2019 09:00:00 4.1 C 91 % 2.77 C
110 11-02-2019 09:05:00 4.1 C 91 % 2.77 C
111 11-02-2019 09:10:00 4.1 C 91 % 2.77 C
112 11-02-2019 09:15:00 4.1 C 90 % 2.61 C
113 11-02-2019 09:20:00 4.1 C 90 % 2.61 C
114 11-02-2019 09:25:00 4.2 C 90 % 2.71 C
115 11-02-2019 09:30:00 4.2 C 90 % 2.71 C
116 11-02-2019 09:35:00 4.2 C 90 % 2.71 C
117 11-02-2019 09:40:00 4.3 C 90 % 2.81 C
118 11-02-2019 09:45:00 4.3 C 89 % 2.65 C
119 11-02-2019 09:50:00 4.4 C 89 % 2.75 C
120 11-02-2019 09:55:00 4.4 C 88 % 2.59 C
121 11-02-2019 10:00:00 4.5 C 88 % 2.69 C
122 11-02-2019 10:05:00 4.6 C 88 % 2.79 C
123 11-02-2019 10:10:00 4.7 C 88 % 2.89 C
124 11-02-2019 10:15:00 4.8 C 88 % 2.99 C
125 11-02-2019 10:20:00 4.9 C 88 % 3.08 C
Sensor: Nr:Datum:Temp:Feuchte:Taupunkt:
Aussen-T/F 126 11-02-2019 10:25:00 5 C 87 % 3.02 C
127 11-02-2019 10:30:00 5.1 C 86 % 2.96 C
128 11-02-2019 10:35:00 5.2 C 85 % 2.89 C
129 11-02-2019 10:40:00 5.2 C 84 % 2.72 C
130 11-02-2019 10:45:00 5.2 C 84 % 2.72 C
131 11-02-2019 10:50:00 5.3 C 85 % 2.99 C
132 11-02-2019 10:55:00 5.3 C 85 % 2.99 C
133 11-02-2019 11:00:00 5.5 C 85 % 3.18 C
134 11-02-2019 11:05:00 5.7 C 84 % 3.21 C
135 11-02-2019 11:10:00 5.7 C 83 % 3.04 C
136 11-02-2019 11:15:00 5.8 C 83 % 3.14 C
137 11-02-2019 11:20:00 5.9 C 82 % 3.07 C
138 11-02-2019 11:25:00 5.9 C 82 % 3.07 C
139 11-02-2019 11:30:00 5.9 C 81 % 2.9 C
140 11-02-2019 11:35:00 6.1 C 81 % 3.09 C
141 11-02-2019 11:40:00 6.1 C 82 % 3.26 C
142 11-02-2019 11:45:00 6.2 C 80 % 3.01 C
143 11-02-2019 11:50:00 6.2 C 81 % 3.19 C
144 11-02-2019 11:55:00 6.3 C 81 % 3.29 C
145 11-02-2019 12:00:00 6.3 C 80 % 3.11 C
146 11-02-2019 12:05:00 6.4 C 78 % 2.85 C
147 11-02-2019 12:10:00 6.5 C 79 % 3.13 C
148 11-02-2019 12:15:00 6.6 C 78 % 3.05 C
149 11-02-2019 12:20:00 6.6 C 78 % 3.05 C
150 11-02-2019 12:25:00 6.6 C 78 % 3.05 C
Sensor: Nr:Datum:Temp:Feuchte:Taupunkt:
Aussen-T/F 151 11-02-2019 12:30:00 6.6 C 78 % 3.05 C
152 11-02-2019 12:35:00 6.7 C 78 % 3.14 C
153 11-02-2019 12:40:00 6.7 C 79 % 3.32 C
154 11-02-2019 12:45:00 6.8 C 78 % 3.24 C
155 11-02-2019 12:50:00 6.8 C 79 % 3.42 C
156 11-02-2019 12:55:00 6.8 C 78 % 3.24 C
157 11-02-2019 13:00:00 6.9 C 78 % 3.34 C
158 11-02-2019 13:05:00 7.1 C 76 % 3.16 C
159 11-02-2019 13:10:00 7.2 C 76 % 3.26 C
160 11-02-2019 13:15:00 7.2 C 75 % 3.07 C
161 11-02-2019 13:20:00 7.2 C 75 % 3.07 C
162 11-02-2019 13:25:00 7.3 C 75 % 3.17 C
163 11-02-2019 13:30:00 7.3 C 75 % 3.17 C
164 11-02-2019 13:35:00 7.4 C 74 % 3.08 C
165 11-02-2019 13:40:00 7.5 C 73 % 2.98 C
166 11-02-2019 13:45:00 7.6 C 72 % 2.88 C
167 11-02-2019 13:50:00 7.4 C 71 % 2.5 C
168 11-02-2019 13:55:00 7.4 C 73 % 2.89 C
169 11-02-2019 14:00:00 7.3 C 73 % 2.79 C
170 11-02-2019 14:05:00 7.3 C 73 % 2.79 C
171 11-02-2019 14:10:00 7.3 C 73 % 2.79 C
172 11-02-2019 14:15:00 7.3 C 73 % 2.79 C
173 11-02-2019 14:20:00 7.3 C 74 % 2.98 C
174 11-02-2019 14:25:00 7.3 C 72 % 2.6 C
175 11-02-2019 14:30:00 7.3 C 73 % 2.79 C
Sensor: Nr:Datum:Temp:Feuchte:Taupunkt:
Aussen-T/F 176 11-02-2019 14:35:00 7.4 C 73 % 2.89 C
177 11-02-2019 14:40:00 7.4 C 74 % 3.08 C
178 11-02-2019 14:45:00 7.5 C 72 % 2.79 C
179 11-02-2019 14:50:00 7.5 C 73 % 2.98 C
180 11-02-2019 14:55:00 7.4 C 72 % 2.69 C
181 11-02-2019 15:00:00 7.4 C 73 % 2.89 C
182 11-02-2019 15:05:00 7.4 C 74 % 3.08 C
183 11-02-2019 15:10:00 7.3 C 73 % 2.79 C
184 11-02-2019 15:15:00 7.3 C 74 % 2.98 C
185 11-02-2019 15:20:00 7.3 C 74 % 2.98 C
186 11-02-2019 15:25:00 7.3 C 74 % 2.98 C
187 11-02-2019 15:30:00 7.3 C 74 % 2.98 C
188 11-02-2019 15:35:00 7.4 C 73 % 2.89 C
189 11-02-2019 15:40:00 7.4 C 74 % 3.08 C
190 11-02-2019 15:45:00 7.4 C 74 % 3.08 C
191 11-02-2019 15:50:00 7.4 C 74 % 3.08 C
192 11-02-2019 15:55:00 7.4 C 74 % 3.08 C
193 11-02-2019 16:00:00 7.3 C 75 % 3.17 C
194 11-02-2019 16:05:00 7.3 C 76 % 3.36 C
195 11-02-2019 16:10:00 7.1 C 78 % 3.53 C
196 11-02-2019 16:15:00 7 C 78 % 3.43 C
197 11-02-2019 16:20:00 6.9 C 79 % 3.52 C
198 11-02-2019 16:25:00 6.8 C 79 % 3.42 C
199 11-02-2019 16:30:00 6.8 C 79 % 3.42 C
200 11-02-2019 16:35:00 6.8 C 79 % 3.42 C
Sensor: Nr:Datum:Temp:Feuchte:Taupunkt:
Aussen-T/F 201 11-02-2019 16:40:00 6.8 C 79 % 3.42 C
202 11-02-2019 16:45:00 6.8 C 81 % 3.77 C
203 11-02-2019 16:50:00 6.7 C 82 % 3.85 C
204 11-02-2019 16:55:00 6.6 C 83 % 3.92 C
205 11-02-2019 17:00:00 6.4 C 84 % 3.9 C
206 11-02-2019 17:05:00 6.4 C 84 % 3.9 C
207 11-02-2019 17:10:00 6.3 C 84 % 3.8 C
208 11-02-2019 17:15:00 6.2 C 85 % 3.87 C
209 11-02-2019 17:20:00 6.1 C 85 % 3.77 C
210 11-02-2019 17:25:00 6.1 C 86 % 3.94 C
211 11-02-2019 17:30:00 6.1 C 84 % 3.61 C
212 11-02-2019 17:35:00 6.1 C 83 % 3.44 C
213 11-02-2019 17:40:00 6.2 C 83 % 3.53 C
214 11-02-2019 17:45:00 6.2 C 83 % 3.53 C
215 11-02-2019 17:50:00 6.2 C 83 % 3.53 C
216 11-02-2019 17:55:00 6.1 C 81 % 3.09 C
217 11-02-2019 18:00:00 6.1 C 79 % 2.74 C
218 11-02-2019 18:05:00 6.1 C 79 % 2.74 C
219 11-02-2019 18:10:00 6 C 78 % 2.46 C
220 11-02-2019 18:15:00 5.9 C 79 % 2.54 C
221 11-02-2019 18:20:00 5.8 C 79 % 2.45 C
222 11-02-2019 18:25:00 5.8 C 79 % 2.45 C
223 11-02-2019 18:30:00 5.7 C 79 % 2.35 C
224 11-02-2019 18:35:00 5.7 C 79 % 2.35 C
225 11-02-2019 18:40:00 5.6 C 80 % 2.43 C
Sensor: Nr:Datum:Temp:Feuchte:Taupunkt:
Aussen-T/F 226 11-02-2019 18:45:00 5.4 C 80 % 2.23 C
227 11-02-2019 18:50:00 5.4 C 80 % 2.23 C
228 11-02-2019 18:55:00 5.3 C 81 % 2.31 C
229 11-02-2019 19:00:00 5.3 C 81 % 2.31 C
230 11-02-2019 19:05:00 5.2 C 81 % 2.21 C
231 11-02-2019 19:10:00 5 C 82 % 2.19 C
232 11-02-2019 19:15:00 4.9 C 83 % 2.26 C
233 11-02-2019 19:20:00 4.7 C 84 % 2.23 C
234 11-02-2019 19:25:00 4.6 C 84 % 2.14 C
235 11-02-2019 19:30:00 4.5 C 86 % 2.37 C
236 11-02-2019 19:35:00 4.6 C 87 % 2.63 C
237 11-02-2019 19:40:00 4.8 C 87 % 2.82 C
238 11-02-2019 19:45:00 4.8 C 87 % 2.82 C
239 11-02-2019 19:50:00 4.8 C 87 % 2.82 C
240 11-02-2019 19:55:00 4.8 C 87 % 2.82 C
241 11-02-2019 20:00:00 4.8 C 87 % 2.82 C
242 11-02-2019 20:05:00 4.7 C 86 % 2.56 C
243 11-02-2019 20:10:00 4.4 C 86 % 2.27 C
244 11-02-2019 20:15:00 4.3 C 87 % 2.33 C
245 11-02-2019 20:20:00 4.2 C 87 % 2.23 C
246 11-02-2019 20:25:00 4.1 C 88 % 2.3 C
247 11-02-2019 20:30:00 3.9 C 88 % 2.1 C
248 11-02-2019 20:35:00 3.9 C 88 % 2.1 C
249 11-02-2019 20:40:00 3.9 C 89 % 2.26 C
250 11-02-2019 20:45:00 3.9 C 88 % 2.1 C
Sensor: Nr:Datum:Temp:Feuchte:Taupunkt:
Aussen-T/F 251 11-02-2019 20:50:00 3.9 C 88 % 2.1 C
252 11-02-2019 20:55:00 3.9 C 88 % 2.1 C
253 11-02-2019 21:00:00 3.8 C 88 % 2 C
254 11-02-2019 21:05:00 3.7 C 88 % 1.9 C
255 11-02-2019 21:10:00 3.7 C 88 % 1.9 C
256 11-02-2019 21:15:00 3.5 C 89 % 1.86 C
257 11-02-2019 21:20:00 3.4 C 89 % 1.76 C
258 11-02-2019 21:25:00 3.4 C 89 % 1.76 C
259 11-02-2019 21:30:00 3.4 C 89 % 1.76 C
260 11-02-2019 21:35:00 3.4 C 89 % 1.76 C
261 11-02-2019 21:40:00 3.4 C 89 % 1.76 C
262 11-02-2019 21:45:00 3.3 C 88 % 1.51 C
263 11-02-2019 21:50:00 3.2 C 89 % 1.57 C
264 11-02-2019 21:55:00 3.2 C 89 % 1.57 C
265 11-02-2019 22:00:00 3.1 C 89 % 1.47 C
266 11-02-2019 22:05:00 3 C 89 % 1.37 C
267 11-02-2019 22:10:00 2.9 C 89 % 1.27 C
268 11-02-2019 22:15:00 2.8 C 89 % 1.17 C
269 11-02-2019 22:20:00 2.8 C 90 % 1.33 C
270 11-02-2019 22:25:00 2.7 C 90 % 1.23 C
271 11-02-2019 22:30:00 2.7 C 90 % 1.23 C
272 11-02-2019 22:35:00 2.7 C 90 % 1.23 C
273 11-02-2019 22:40:00 2.7 C 91 % 1.38 C
274 11-02-2019 22:45:00 2.6 C 91 % 1.28 C
275 11-02-2019 22:50:00 2.6 C 91 % 1.28 C
Sensor: Nr:Datum:Temp:Feuchte:Taupunkt:
Aussen-T/F 276 11-02-2019 22:55:00 2.6 C 91 % 1.28 C
277 11-02-2019 23:00:00 2.5 C 91 % 1.18 C
278 11-02-2019 23:05:00 2.5 C 91 % 1.18 C
279 11-02-2019 23:10:00 2.4 C 91 % 1.08 C
280 11-02-2019 23:15:00 2.4 C 91 % 1.08 C
281 11-02-2019 23:20:00 2.4 C 92 % 1.24 C
282 11-02-2019 23:25:00 2.5 C 92 % 1.34 C
283 11-02-2019 23:30:00 2.5 C 92 % 1.34 C
284 11-02-2019 23:35:00 2.6 C 92 % 1.43 C
285 11-02-2019 23:40:00 2.6 C 92 % 1.43 C
286 11-02-2019 23:45:00 2.7 C 92 % 1.53 C
287 11-02-2019 23:50:00 2.8 C 92 % 1.63 C
288 11-02-2019 23:55:00 2.9 C 91 % 1.58 C
289 12-02-2019 00:00:00 2.9 C 91 % 1.58 C
290 12-02-2019 00:05:00 3 C 91 % 1.68 C
291 12-02-2019 00:10:00 3 C 90 % 1.52 C
292 12-02-2019 00:15:00 3.1 C 90 % 1.62 C
293 12-02-2019 00:20:00 3.1 C 90 % 1.62 C
294 12-02-2019 00:25:00 3.1 C 90 % 1.62 C
295 12-02-2019 00:30:00 3.1 C 90 % 1.62 C
296 12-02-2019 00:35:00 3.2 C 90 % 1.72 C
297 12-02-2019 00:40:00 3.3 C 90 % 1.82 C
298 12-02-2019 00:45:00 3.3 C 89 % 1.67 C
299 12-02-2019 00:50:00 3.2 C 89 % 1.57 C
300 12-02-2019 00:55:00 3.2 C 89 % 1.57 C
Sensor: Nr:Datum:Temp:Feuchte:Taupunkt:
Aussen-T/F 301 12-02-2019 01:00:00 3.2 C 89 % 1.57 C
302 12-02-2019 01:05:00 3.2 C 89 % 1.57 C
303 12-02-2019 01:10:00 3.2 C 90 % 1.72 C
304 12-02-2019 01:15:00 3.1 C 90 % 1.62 C
305 12-02-2019 01:20:00 3.1 C 90 % 1.62 C
306 12-02-2019 01:25:00 3.1 C 90 % 1.62 C
307 12-02-2019 01:30:00 3.1 C 90 % 1.62 C
308 12-02-2019 01:35:00 3.1 C 90 % 1.62 C
309 12-02-2019 01:40:00 3 C 90 % 1.52 C
310 12-02-2019 01:45:00 2.9 C 90 % 1.43 C
311 12-02-2019 01:50:00 2.9 C 90 % 1.43 C
312 12-02-2019 01:55:00 2.8 C 90 % 1.33 C
313 12-02-2019 02:00:00 2.8 C 90 % 1.33 C
314 12-02-2019 02:05:00 2.7 C 90 % 1.23 C
315 12-02-2019 02:10:00 2.7 C 91 % 1.38 C
316 12-02-2019 02:15:00 2.8 C 91 % 1.48 C
317 12-02-2019 02:20:00 2.8 C 91 % 1.48 C
318 12-02-2019 02:25:00 2.8 C 91 % 1.48 C
319 12-02-2019 02:30:00 2.8 C 91 % 1.48 C
320 12-02-2019 02:35:00 2.8 C 91 % 1.48 C
321 12-02-2019 02:40:00 2.9 C 91 % 1.58 C
322 12-02-2019 02:45:00 2.9 C 91 % 1.58 C
323 12-02-2019 02:50:00 2.8 C 91 % 1.48 C
324 12-02-2019 02:55:00 2.8 C 91 % 1.48 C
325 12-02-2019 03:00:00 2.8 C 91 % 1.48 C
Sensor: Nr:Datum:Temp:Feuchte:Taupunkt:
Aussen-T/F 326 12-02-2019 03:05:00 2.8 C 91 % 1.48 C
327 12-02-2019 03:10:00 2.8 C 91 % 1.48 C
328 12-02-2019 03:15:00 2.8 C 91 % 1.48 C
329 12-02-2019 03:20:00 2.8 C 91 % 1.48 C
330 12-02-2019 03:25:00 2.7 C 91 % 1.38 C
331 12-02-2019 03:30:00 2.7 C 90 % 1.23 C
332 12-02-2019 03:35:00 2.6 C 90 % 1.13 C
333 12-02-2019 03:40:00 2.5 C 90 % 1.03 C
334 12-02-2019 03:45:00 2.4 C 91 % 1.08 C
335 12-02-2019 03:50:00 2.4 C 91 % 1.08 C
336 12-02-2019 03:55:00 2.3 C 91 % 0.99 C
337 12-02-2019 04:00:00 2.3 C 91 % 0.99 C
338 12-02-2019 04:05:00 2.3 C 91 % 0.99 C
339 12-02-2019 04:10:00 2.3 C 91 % 0.99 C
340 12-02-2019 04:15:00 2.3 C 92 % 1.14 C
341 12-02-2019 04:20:00 2.4 C 92 % 1.24 C
342 12-02-2019 04:25:00 2.4 C 92 % 1.24 C
343 12-02-2019 04:30:00 2.5 C 92 % 1.34 C
344 12-02-2019 04:35:00 2.6 C 91 % 1.28 C
345 12-02-2019 04:40:00 2.6 C 91 % 1.28 C
346 12-02-2019 04:45:00 2.7 C 91 % 1.38 C
347 12-02-2019 04:50:00 2.7 C 91 % 1.38 C
348 12-02-2019 04:55:00 2.7 C 91 % 1.38 C
349 12-02-2019 05:00:00 2.7 C 91 % 1.38 C
350 12-02-2019 05:05:00 2.7 C 91 % 1.38 C
Sensor: Nr:Datum:Temp:Feuchte:Taupunkt:
Aussen-T/F 351 12-02-2019 05:10:00 2.7 C 90 % 1.23 C
352 12-02-2019 05:15:00 2.7 C 90 % 1.23 C
353 12-02-2019 05:20:00 2.6 C 90 % 1.13 C
354 12-02-2019 05:25:00 2.6 C 90 % 1.13 C
355 12-02-2019 05:30:00 2.6 C 90 % 1.13 C
356 12-02-2019 05:35:00 2.6 C 91 % 1.28 C
357 12-02-2019 05:40:00 2.6 C 91 % 1.28 C
358 12-02-2019 05:45:00 2.6 C 91 % 1.28 C
359 12-02-2019 05:50:00 2.6 C 91 % 1.28 C
360 12-02-2019 05:55:00 2.6 C 90 % 1.13 C
361 12-02-2019 06:00:00 2.6 C 90 % 1.13 C
362 12-02-2019 06:05:00 2.5 C 90 % 1.03 C
363 12-02-2019 06:10:00 2.5 C 90 % 1.03 C
364 12-02-2019 06:15:00 2.5 C 90 % 1.03 C
365 12-02-2019 06:20:00 2.5 C 90 % 1.03 C
366 12-02-2019 06:25:00 2.4 C 90 % 0.93 C
367 12-02-2019 06:30:00 2.3 C 90 % 0.83 C
368 12-02-2019 06:35:00 2.3 C 90 % 0.83 C
369 12-02-2019 06:40:00 2.3 C 90 % 0.83 C
370 12-02-2019 06:45:00 2.3 C 90 % 0.83 C
371 12-02-2019 06:50:00 2.3 C 90 % 0.83 C
372 12-02-2019 06:55:00 2.3 C 91 % 0.99 C
373 12-02-2019 07:00:00 2.4 C 90 % 0.93 C
374 12-02-2019 07:05:00 2.4 C 90 % 0.93 C
375 12-02-2019 07:10:00 2.5 C 90 % 1.03 C
Sensor: Nr:Datum:Temp:Feuchte:Taupunkt:
Aussen-T/F 376 12-02-2019 07:15:00 2.5 C 90 % 1.03 C
377 12-02-2019 07:20:00 2.5 C 90 % 1.03 C
378 12-02-2019 07:25:00 2.4 C 90 % 0.93 C
379 12-02-2019 07:30:00 2.4 C 90 % 0.93 C
380 12-02-2019 07:35:00 2.4 C 90 % 0.93 C
381 12-02-2019 07:40:00 2.4 C 90 % 0.93 C
382 12-02-2019 07:45:00 2.4 C 90 % 0.93 C
383 12-02-2019 07:50:00 2.4 C 90 % 0.93 C
384 12-02-2019 07:55:00 2.3 C 90 % 0.83 C
385 12-02-2019 08:00:00 2.3 C 90 % 0.83 C
386 12-02-2019 08:05:00 2.3 C 90 % 0.83 C
387 12-02-2019 08:10:00 2.3 C 90 % 0.83 C
388 12-02-2019 08:15:00 2.3 C 90 % 0.83 C
389 12-02-2019 08:20:00 2.3 C 90 % 0.83 C
390 12-02-2019 08:25:00 2.2 C 90 % 0.73 C
391 12-02-2019 08:30:00 2.2 C 90 % 0.73 C
392 12-02-2019 08:35:00 2.2 C 90 % 0.73 C
393 12-02-2019 08:40:00 2.2 C 90 % 0.73 C
394 12-02-2019 08:45:00 2.3 C 90 % 0.83 C
395 12-02-2019 08:50:00 2.3 C 90 % 0.83 C
396 12-02-2019 08:55:00 2.4 C 90 % 0.93 C
397 12-02-2019 09:00:00 2.5 C 90 % 1.03 C
398 12-02-2019 09:05:00 2.6 C 90 % 1.13 C
399 12-02-2019 09:10:00 2.7 C 89 % 1.07 C
400 12-02-2019 09:15:00 2.8 C 89 % 1.17 C
Sensor: Nr:Datum:Temp:Feuchte:Taupunkt:
Aussen-T/F 401 12-02-2019 09:20:00 2.8 C 89 % 1.17 C
402 12-02-2019 09:25:00 2.9 C 89 % 1.27 C
403 12-02-2019 09:30:00 3 C 89 % 1.37 C
404 12-02-2019 09:35:00 3.1 C 88 % 1.31 C
405 12-02-2019 09:40:00 3.2 C 88 % 1.41 C
406 12-02-2019 09:45:00 3.3 C 88 % 1.51 C
407 12-02-2019 09:50:00 3.4 C 88 % 1.61 C
408 12-02-2019 09:55:00 3.5 C 88 % 1.7 C
409 12-02-2019 10:00:00 3.6 C 88 % 1.8 C
410 12-02-2019 10:05:00 3.7 C 87 % 1.74 C
411 12-02-2019 10:10:00 3.7 C 87 % 1.74 C
412 12-02-2019 10:15:00 3.8 C 87 % 1.84 C
413 12-02-2019 10:20:00 3.8 C 87 % 1.84 C
414 12-02-2019 10:25:00 3.9 C 86 % 1.78 C
415 12-02-2019 10:30:00 4 C 86 % 1.88 C
416 12-02-2019 10:35:00 4.1 C 86 % 1.97 C
417 12-02-2019 10:40:00 4.2 C 86 % 2.07 C
418 12-02-2019 10:45:00 4.2 C 85 % 1.91 C
419 12-02-2019 10:50:00 4.2 C 85 % 1.91 C
420 12-02-2019 10:55:00 4.3 C 86 % 2.17 C
421 12-02-2019 11:00:00 4.3 C 85 % 2.01 C
422 12-02-2019 11:05:00 4.4 C 85 % 2.11 C
423 12-02-2019 11:10:00 4.4 C 85 % 2.11 C
424 12-02-2019 11:15:00 4.5 C 84 % 2.04 C
425 12-02-2019 11:20:00 4.6 C 84 % 2.14 C
Sensor: Nr:Datum:Temp:Feuchte:Taupunkt:
Aussen-T/F 426 12-02-2019 11:25:00 4.6 C 84 % 2.14 C
427 12-02-2019 11:30:00 4.7 C 84 % 2.23 C
428 12-02-2019 11:35:00 4.7 C 84 % 2.23 C
429 12-02-2019 11:40:00 4.8 C 84 % 2.33 C
430 12-02-2019 11:45:00 4.9 C 84 % 2.43 C
431 12-02-2019 11:50:00 5 C 83 % 2.36 C
432 12-02-2019 11:55:00 5 C 83 % 2.36 C
433 12-02-2019 12:00:00 5.1 C 83 % 2.46 C
434 12-02-2019 12:05:00 5.1 C 83 % 2.46 C
435 12-02-2019 12:10:00 5.2 C 83 % 2.56 C
436 12-02-2019 12:15:00 5.3 C 83 % 2.65 C
437 12-02-2019 12:20:00 5.3 C 82 % 2.48 C
438 12-02-2019 12:25:00 5.4 C 82 % 2.58 C
439 12-02-2019 12:30:00 5.4 C 82 % 2.58 C
440 12-02-2019 12:35:00 5.5 C 83 % 2.85 C
441 12-02-2019 12:40:00 5.6 C 83 % 2.95 C
442 12-02-2019 12:45:00 5.7 C 81 % 2.7 C
443 12-02-2019 12:50:00 5.8 C 81 % 2.8 C
444 12-02-2019 12:55:00 5.9 C 81 % 2.9 C
445 12-02-2019 13:00:00 6 C 81 % 2.99 C
446 12-02-2019 13:05:00 6.1 C 81 % 3.09 C
447 12-02-2019 13:10:00 6.2 C 80 % 3.01 C
448 12-02-2019 13:15:00 6.2 C 80 % 3.01 C
449 12-02-2019 13:20:00 6.2 C 79 % 2.84 C
450 12-02-2019 13:25:00 6.3 C 80 % 3.11 C
Sensor: Nr:Datum:Temp:Feuchte:Taupunkt:
Aussen-T/F 451 12-02-2019 13:30:00 6.3 C 80 % 3.11 C
452 12-02-2019 13:35:00 6.4 C 80 % 3.21 C
453 12-02-2019 13:40:00 6.4 C 78 % 2.85 C
454 12-02-2019 13:45:00 6.5 C 78 % 2.95 C
455 12-02-2019 13:50:00 6.5 C 78 % 2.95 C
456 12-02-2019 13:55:00 6.6 C 78 % 3.05 C
457 12-02-2019 14:00:00 6.7 C 78 % 3.14 C
458 12-02-2019 14:05:00 6.7 C 78 % 3.14 C
459 12-02-2019 14:10:00 6.8 C 78 % 3.24 C
460 12-02-2019 14:15:00 6.9 C 77 % 3.16 C
461 12-02-2019 14:20:00 6.9 C 76 % 2.97 C
462 12-02-2019 14:25:00 6.9 C 76 % 2.97 C
463 12-02-2019 14:30:00 6.9 C 76 % 2.97 C
464 12-02-2019 14:35:00 6.9 C 76 % 2.97 C
465 12-02-2019 14:40:00 7 C 76 % 3.07 C
466 12-02-2019 14:45:00 6.9 C 77 % 3.16 C
467 12-02-2019 14:50:00 6.9 C 76 % 2.97 C
468 12-02-2019 14:55:00 7 C 77 % 3.25 C
469 12-02-2019 15:00:00 6.9 C 76 % 2.97 C
470 12-02-2019 15:05:00 6.9 C 75 % 2.78 C
471 12-02-2019 15:10:00 7 C 75 % 2.88 C
472 12-02-2019 15:15:00 7 C 76 % 3.07 C
473 12-02-2019 15:20:00 7.1 C 76 % 3.16 C
474 12-02-2019 15:25:00 7.1 C 76 % 3.16 C
475 12-02-2019 15:30:00 7.1 C 76 % 3.16 C
Sensor: Nr:Datum:Temp:Feuchte:Taupunkt:
Aussen-T/F 476 12-02-2019 15:35:00 7.1 C 75 % 2.98 C
477 12-02-2019 15:40:00 7.1 C 76 % 3.16 C
478 12-02-2019 15:45:00 7.1 C 76 % 3.16 C
479 12-02-2019 15:50:00 7.1 C 76 % 3.16 C
480 12-02-2019 15:55:00 7.1 C 76 % 3.16 C
481 12-02-2019 16:00:00 7.2 C 77 % 3.45 C
482 12-02-2019 16:05:00 7.3 C 76 % 3.36 C
483 12-02-2019 16:10:00 7.4 C 76 % 3.45 C
484 12-02-2019 16:15:00 7.5 C 75 % 3.36 C
485 12-02-2019 16:20:00 7.6 C 75 % 3.46 C
486 12-02-2019 16:25:00 7.5 C 74 % 3.17 C
487 12-02-2019 16:30:00 7.5 C 75 % 3.36 C
488 12-02-2019 16:35:00 7.5 C 74 % 3.17 C
489 12-02-2019 16:40:00 7.5 C 73 % 2.98 C
490 12-02-2019 16:45:00 7.4 C 74 % 3.08 C
491 12-02-2019 16:50:00 7.4 C 75 % 3.27 C
492 12-02-2019 16:55:00 7.3 C 74 % 2.98 C
493 12-02-2019 17:00:00 7.2 C 75 % 3.07 C
494 12-02-2019 17:05:00 7.1 C 75 % 2.98 C
495 12-02-2019 17:10:00 7 C 76 % 3.07 C
496 12-02-2019 17:15:00 6.9 C 75 % 2.78 C
497 12-02-2019 17:20:00 6.8 C 76 % 2.87 C
498 12-02-2019 17:25:00 6.8 C 77 % 3.06 C
499 12-02-2019 17:30:00 6.7 C 77 % 2.96 C
500 12-02-2019 17:35:00 6.4 C 78 % 2.85 C
Sensor: Nr:Datum:Temp:Feuchte:Taupunkt:
Aussen-T/F 501 12-02-2019 17:40:00 6.3 C 79 % 2.93 C
502 12-02-2019 17:45:00 6.1 C 79 % 2.74 C
503 12-02-2019 17:50:00 5.8 C 80 % 2.62 C
504 12-02-2019 17:55:00 5.6 C 81 % 2.6 C
505 12-02-2019 18:00:00 5.3 C 81 % 2.31 C
506 12-02-2019 18:05:00 5.1 C 82 % 2.29 C
507 12-02-2019 18:10:00 4.9 C 83 % 2.26 C
508 12-02-2019 18:15:00 4.7 C 84 % 2.23 C
509 12-02-2019 18:20:00 4.6 C 84 % 2.14 C
510 12-02-2019 18:25:00 4.4 C 85 % 2.11 C
511 12-02-2019 18:30:00 4.2 C 85 % 1.91 C
512 12-02-2019 18:35:00 4.1 C 86 % 1.97 C
513 12-02-2019 18:40:00 3.9 C 86 % 1.78 C
514 12-02-2019 18:45:00 3.8 C 86 % 1.68 C
515 12-02-2019 18:50:00 3.7 C 87 % 1.74 C
516 12-02-2019 18:55:00 3.6 C 87 % 1.64 C
517 12-02-2019 19:00:00 3.5 C 87 % 1.55 C
518 12-02-2019 19:05:00 3.4 C 87 % 1.45 C
519 12-02-2019 19:10:00 3.3 C 88 % 1.51 C
520 12-02-2019 19:15:00 3.2 C 88 % 1.41 C
521 12-02-2019 19:20:00 3.1 C 88 % 1.31 C
522 12-02-2019 19:25:00 3.1 C 89 % 1.47 C
523 12-02-2019 19:30:00 2.9 C 89 % 1.27 C
524 12-02-2019 19:35:00 2.9 C 89 % 1.27 C
525 12-02-2019 19:40:00 2.8 C 89 % 1.17 C
Sensor: Nr:Datum:Temp:Feuchte:Taupunkt:
Aussen-T/F 526 12-02-2019 19:45:00 2.8 C 89 % 1.17 C
527 12-02-2019 19:50:00 2.7 C 89 % 1.07 C
528 12-02-2019 19:55:00 2.6 C 89 % 0.97 C
529 12-02-2019 20:00:00 2.6 C 90 % 1.13 C
530 12-02-2019 20:05:00 2.5 C 90 % 1.03 C
531 12-02-2019 20:10:00 2.4 C 90 % 0.93 C
532 12-02-2019 20:15:00 2.4 C 90 % 0.93 C
533 12-02-2019 20:20:00 2.4 C 90 % 0.93 C
534 12-02-2019 20:25:00 2.4 C 90 % 0.93 C
535 12-02-2019 20:30:00 2.3 C 90 % 0.83 C
536 12-02-2019 20:35:00 2.3 C 90 % 0.83 C
537 12-02-2019 20:40:00 2.3 C 91 % 0.99 C
538 12-02-2019 20:45:00 2.2 C 91 % 0.89 C
539 12-02-2019 20:50:00 2.1 C 91 % 0.79 C
540 12-02-2019 20:55:00 2.1 C 91 % 0.79 C
541 12-02-2019 21:00:00 1.9 C 90 % 0.44 C
542 12-02-2019 21:05:00 1.8 C 91 % 0.49 C
543 12-02-2019 21:10:00 1.8 C 91 % 0.49 C
544 12-02-2019 21:15:00 1.7 C 91 % 0.39 C
545 12-02-2019 21:20:00 1.6 C 91 % 0.29 C
546 12-02-2019 21:25:00 1.6 C 92 % 0.44 C
547 12-02-2019 21:30:00 1.6 C 92 % 0.44 C
548 12-02-2019 21:35:00 1.5 C 92 % 0.35 C
549 12-02-2019 21:40:00 1.4 C 92 % 0.25 C
550 12-02-2019 21:45:00 1.4 C 92 % 0.25 C
Sensor: Nr:Datum:Temp:Feuchte:Taupunkt:
Aussen-T/F 551 12-02-2019 21:50:00 1.4 C 92 % 0.25 C
552 12-02-2019 21:55:00 1.4 C 92 % 0.25 C
553 12-02-2019 22:00:00 1.3 C 92 % 0.15 C
554 12-02-2019 22:05:00 1.3 C 92 % 0.15 C
555 12-02-2019 22:10:00 1.3 C 93 % 0.3 C
556 12-02-2019 22:15:00 1.3 C 93 % 0.3 C
557 12-02-2019 22:20:00 1.4 C 93 % 0.4 C
558 12-02-2019 22:25:00 1.5 C 93 % 0.49 C
559 12-02-2019 22:30:00 1.5 C 93 % 0.49 C
560 12-02-2019 22:35:00 1.5 C 93 % 0.49 C
561 12-02-2019 22:40:00 1.6 C 93 % 0.59 C
562 12-02-2019 22:45:00 1.5 C 93 % 0.49 C
563 12-02-2019 22:50:00 1.4 C 93 % 0.4 C
564 12-02-2019 22:55:00 1.4 C 93 % 0.4 C
565 12-02-2019 23:00:00 1.4 C 93 % 0.4 C
566 12-02-2019 23:05:00 1.4 C 93 % 0.4 C
567 12-02-2019 23:10:00 1.4 C 93 % 0.4 C
568 12-02-2019 23:15:00 1.3 C 93 % 0.3 C
569 12-02-2019 23:20:00 1.3 C 93 % 0.3 C
570 12-02-2019 23:25:00 1.3 C 93 % 0.3 C
571 12-02-2019 23:30:00 1.3 C 93 % 0.3 C
572 12-02-2019 23:35:00 1.3 C 93 % 0.3 C
573 12-02-2019 23:40:00 1.4 C 94 % 0.54 C
574 12-02-2019 23:45:00 1.5 C 94 % 0.64 C
575 12-02-2019 23:50:00 1.5 C 94 % 0.64 C
Sensor: Nr:Datum:Temp:Feuchte:Taupunkt:
Aussen-T/F 576 12-02-2019 23:55:00 1.4 C 93 % 0.4 C
577 13-02-2019 00:00:00 1.4 C 93 % 0.4 C
578 13-02-2019 00:05:00 1.4 C 93 % 0.4 C
579 13-02-2019 00:10:00 1.3 C 93 % 0.3 C
580 13-02-2019 00:15:00 1.3 C 93 % 0.3 C
581 13-02-2019 00:20:00 1.3 C 93 % 0.3 C
582 13-02-2019 00:25:00 1.2 C 93 % 0.2 C
583 13-02-2019 00:30:00 1.2 C 93 % 0.2 C
584 13-02-2019 00:35:00 1.2 C 93 % 0.2 C
585 13-02-2019 00:40:00 1.2 C 93 % 0.2 C
586 13-02-2019 00:45:00 1.2 C 93 % 0.2 C
587 13-02-2019 00:50:00 1.2 C 93 % 0.2 C
588 13-02-2019 00:55:00 1.1 C 93 % 0.1 C
589 13-02-2019 01:00:00 0.9 C 93 % -0.1 C
590 13-02-2019 01:05:00 1 C 94 % 0.15 C
591 13-02-2019 01:10:00 0.9 C 93 % -0.1 C
592 13-02-2019 01:15:00 0.9 C 93 % -0.1 C
593 13-02-2019 01:20:00 0.8 C 93 % -0.2 C
594 13-02-2019 01:25:00 0.8 C 93 % -0.2 C
595 13-02-2019 01:30:00 0.8 C 93 % -0.2 C
596 13-02-2019 01:35:00 0.9 C 94 % 0.05 C
597 13-02-2019 01:40:00 1 C 94 % 0.15 C
598 13-02-2019 01:45:00 0.9 C 93 % -0.1 C
599 13-02-2019 01:50:00 0.8 C 93 % -0.2 C
600 13-02-2019 01:55:00 0.6 C 93 % -0.4 C
Sensor: Nr:Datum:Temp:Feuchte:Taupunkt:
Aussen-T/F 601 13-02-2019 02:00:00 0.5 C 93 % -0.5 C
602 13-02-2019 02:05:00 0.3 C 93 % -0.7 C
603 13-02-2019 02:10:00 0.2 C 93 % -0.79 C
604 13-02-2019 02:15:00 0.2 C 93 % -0.79 C
605 13-02-2019 02:20:00 0.1 C 93 % -0.89 C
606 13-02-2019 02:25:00 0.1 C 93 % -0.89 C
607 13-02-2019 02:30:00 0.1 C 93 % -0.89 C
608 13-02-2019 02:35:00 0 C 94 % -0.85 C
609 13-02-2019 02:40:00 0.1 C 94 % -0.75 C
610 13-02-2019 02:45:00 0 C 94 % -0.85 C
611 13-02-2019 02:50:00 0 C 94 % -0.85 C
612 13-02-2019 02:55:00 -0.1 C 94 % -0.95 C
613 13-02-2019 03:00:00 -0.2 C 94 % -1.05 C
614 13-02-2019 03:05:00 -0.2 C 94 % -1.05 C
615 13-02-2019 03:10:00 -0.3 C 94 % -1.15 C
616 13-02-2019 03:15:00 -0.3 C 94 % -1.15 C
617 13-02-2019 03:20:00 -0.3 C 94 % -1.15 C
618 13-02-2019 03:25:00 -0.4 C 94 % -1.25 C
619 13-02-2019 03:30:00 -0.4 C 94 % -1.25 C
620 13-02-2019 03:35:00 -0.4 C 94 % -1.25 C
621 13-02-2019 03:40:00 -0.4 C 94 % -1.25 C
622 13-02-2019 03:45:00 -0.3 C 94 % -1.15 C
623 13-02-2019 03:50:00 -0.3 C 94 % -1.15 C
624 13-02-2019 03:55:00 -0.3 C 94 % -1.15 C
625 13-02-2019 04:00:00 -0.3 C 94 % -1.15 C
Sensor: Nr:Datum:Temp:Feuchte:Taupunkt:
Aussen-T/F 626 13-02-2019 04:05:00 -0.4 C 94 % -1.25 C
627 13-02-2019 04:10:00 -0.4 C 94 % -1.25 C
628 13-02-2019 04:15:00 -0.4 C 94 % -1.25 C
629 13-02-2019 04:20:00 -0.4 C 95 % -1.1 C
630 13-02-2019 04:25:00 -0.4 C 94 % -1.25 C
631 13-02-2019 04:30:00 -0.3 C 95 % -1 C
632 13-02-2019 04:35:00 -0.3 C 95 % -1 C
633 13-02-2019 04:40:00 -0.3 C 95 % -1 C
634 13-02-2019 04:45:00 -0.3 C 95 % -1 C
635 13-02-2019 04:50:00 -0.2 C 95 % -0.9 C
636 13-02-2019 04:55:00 -0.3 C 95 % -1 C
637 13-02-2019 05:00:00 -0.3 C 95 % -1 C
638 13-02-2019 05:05:00 -0.3 C 95 % -1 C
639 13-02-2019 05:10:00 -0.3 C 95 % -1 C
640 13-02-2019 05:15:00 -0.3 C 95 % -1 C
641 13-02-2019 05:20:00 -0.4 C 95 % -1.1 C
642 13-02-2019 05:25:00 -0.5 C 95 % -1.2 C
643 13-02-2019 05:30:00 -0.5 C 95 % -1.2 C
644 13-02-2019 05:35:00 -0.6 C 95 % -1.3 C
645 13-02-2019 05:40:00 -0.6 C 95 % -1.3 C
646 13-02-2019 05:45:00 -0.6 C 95 % -1.3 C
647 13-02-2019 05:50:00 -0.6 C 95 % -1.3 C
648 13-02-2019 05:55:00 -0.6 C 95 % -1.3 C
649 13-02-2019 06:00:00 -0.6 C 95 % -1.3 C
650 13-02-2019 06:05:00 -0.6 C 95 % -1.3 C
Sensor: Nr:Datum:Temp:Feuchte:Taupunkt:
Aussen-T/F 651 13-02-2019 06:10:00 -0.5 C 95 % -1.2 C
652 13-02-2019 06:15:00 -0.5 C 95 % -1.2 C
653 13-02-2019 06:20:00 -0.6 C 95 % -1.3 C
654 13-02-2019 06:25:00 -0.6 C 95 % -1.3 C
655 13-02-2019 06:30:00 -0.5 C 95 % -1.2 C
656 13-02-2019 06:35:00 -0.5 C 95 % -1.2 C
657 13-02-2019 06:40:00 -0.4 C 95 % -1.1 C
658 13-02-2019 06:45:00 -0.3 C 95 % -1 C
659 13-02-2019 06:50:00 -0.2 C 96 % -0.76 C
660 13-02-2019 06:55:00 -0.1 C 96 % -0.66 C
661 13-02-2019 07:00:00 0 C 96 % -0.56 C
662 13-02-2019 07:05:00 0.1 C 96 % -0.46 C
663 13-02-2019 07:10:00 0.1 C 96 % -0.46 C
664 13-02-2019 07:15:00 0.2 C 96 % -0.36 C
665 13-02-2019 07:20:00 0.3 C 96 % -0.26 C
666 13-02-2019 07:25:00 0.3 C 96 % -0.26 C
667 13-02-2019 07:30:00 0.3 C 96 % -0.26 C
668 13-02-2019 07:35:00 0.3 C 96 % -0.26 C
669 13-02-2019 07:40:00 0.4 C 96 % -0.16 C
670 13-02-2019 07:45:00 0.4 C 96 % -0.16 C
671 13-02-2019 07:50:00 0.4 C 96 % -0.16 C
672 13-02-2019 07:55:00 0.4 C 96 % -0.16 C
673 13-02-2019 08:00:00 0.5 C 96 % -0.06 C
674 13-02-2019 08:05:00 0.5 C 96 % -0.06 C
675 13-02-2019 08:10:00 0.6 C 96 % 0.04 C
Sensor: Nr:Datum:Temp:Feuchte:Taupunkt:
Aussen-T/F 676 13-02-2019 08:15:00 0.6 C 96 % 0.04 C
677 13-02-2019 08:20:00 0.6 C 96 % 0.04 C
678 13-02-2019 08:25:00 0.7 C 96 % 0.14 C
679 13-02-2019 08:30:00 0.7 C 96 % 0.14 C
680 13-02-2019 08:35:00 0.7 C 96 % 0.14 C
681 13-02-2019 08:40:00 0.7 C 95 % -0.01 C
682 13-02-2019 08:45:00 0.8 C 95 % 0.09 C
683 13-02-2019 08:50:00 0.8 C 95 % 0.09 C
684 13-02-2019 08:55:00 0.8 C 95 % 0.09 C
685 13-02-2019 09:00:00 0.9 C 95 % 0.19 C
686 13-02-2019 09:05:00 0.9 C 96 % 0.34 C
687 13-02-2019 09:10:00 0.9 C 95 % 0.19 C
688 13-02-2019 09:15:00 0.9 C 95 % 0.19 C
689 13-02-2019 09:20:00 1 C 95 % 0.29 C
690 13-02-2019 09:25:00 1 C 95 % 0.29 C
691 13-02-2019 09:30:00 1 C 95 % 0.29 C
692 13-02-2019 09:35:00 1 C 95 % 0.29 C
693 13-02-2019 09:40:00 1.1 C 95 % 0.39 C
694 13-02-2019 09:45:00 1.1 C 95 % 0.39 C
695 13-02-2019 09:50:00 1.1 C 95 % 0.39 C
696 13-02-2019 09:55:00 1.2 C 95 % 0.49 C
697 13-02-2019 10:00:00 1.3 C 95 % 0.59 C
698 13-02-2019 10:05:00 1.3 C 94 % 0.44 C
699 13-02-2019 10:10:00 1.3 C 94 % 0.44 C
700 13-02-2019 10:15:00 1.4 C 94 % 0.54 C
Sensor: Nr:Datum:Temp:Feuchte:Taupunkt:
Aussen-T/F 701 13-02-2019 10:20:00 1.5 C 94 % 0.64 C
702 13-02-2019 10:25:00 1.6 C 94 % 0.74 C
703 13-02-2019 10:30:00 1.7 C 94 % 0.84 C
704 13-02-2019 10:35:00 1.7 C 93 % 0.69 C
705 13-02-2019 10:40:00 1.8 C 93 % 0.79 C
706 13-02-2019 10:45:00 1.8 C 93 % 0.79 C
707 13-02-2019 10:50:00 1.9 C 93 % 0.89 C
708 13-02-2019 10:55:00 2 C 93 % 0.99 C
709 13-02-2019 11:00:00 2.1 C 93 % 1.09 C
710 13-02-2019 11:05:00 2.2 C 92 % 1.04 C
711 13-02-2019 11:10:00 2.2 C 92 % 1.04 C
712 13-02-2019 11:15:00 2.3 C 91 % 0.99 C
713 13-02-2019 11:20:00 2.3 C 91 % 0.99 C
714 13-02-2019 11:25:00 2.3 C 91 % 0.99 C
715 13-02-2019 11:30:00 2.3 C 91 % 0.99 C
716 13-02-2019 11:35:00 2.3 C 91 % 0.99 C
717 13-02-2019 11:40:00 2.4 C 91 % 1.08 C
718 13-02-2019 11:45:00 2.4 C 91 % 1.08 C
719 13-02-2019 11:50:00 2.5 C 91 % 1.18 C
720 13-02-2019 11:55:00 2.6 C 91 % 1.28 C
721 13-02-2019 12:00:00 2.7 C 91 % 1.38 C
722 13-02-2019 12:05:00 2.8 C 91 % 1.48 C
723 13-02-2019 12:10:00 2.9 C 91 % 1.58 C
724 13-02-2019 12:15:00 3.1 C 91 % 1.78 C
725 13-02-2019 12:20:00 3.3 C 91 % 1.98 C
Sensor: Nr:Datum:Temp:Feuchte:Taupunkt:
Aussen-T/F 726 13-02-2019 12:25:00 3.5 C 90 % 2.02 C
727 13-02-2019 12:30:00 3.7 C 90 % 2.22 C
728 13-02-2019 12:35:00 3.9 C 89 % 2.26 C
729 13-02-2019 12:40:00 4.1 C 88 % 2.3 C
730 13-02-2019 12:45:00 4.3 C 87 % 2.33 C
731 13-02-2019 12:50:00 4.3 C 86 % 2.17 C
732 13-02-2019 12:55:00 4.4 C 86 % 2.27 C
733 13-02-2019 13:00:00 4.6 C 86 % 2.47 C
734 13-02-2019 13:05:00 4.6 C 85 % 2.3 C
735 13-02-2019 13:10:00 4.7 C 86 % 2.56 C
736 13-02-2019 13:15:00 4.8 C 85 % 2.5 C
737 13-02-2019 13:20:00 4.8 C 85 % 2.5 C
738 13-02-2019 13:25:00 4.9 C 85 % 2.6 C
739 13-02-2019 13:30:00 4.9 C 84 % 2.43 C
740 13-02-2019 13:35:00 4.9 C 84 % 2.43 C
741 13-02-2019 13:40:00 5 C 84 % 2.53 C
742 13-02-2019 13:45:00 5.1 C 84 % 2.63 C
743 13-02-2019 13:50:00 5.2 C 84 % 2.72 C
744 13-02-2019 13:55:00 5.2 C 84 % 2.72 C
745 13-02-2019 14:00:00 5.2 C 83 % 2.56 C
746 13-02-2019 14:05:00 5.3 C 84 % 2.82 C
747 13-02-2019 14:10:00 5.3 C 83 % 2.65 C
748 13-02-2019 14:15:00 5.4 C 83 % 2.75 C
749 13-02-2019 14:20:00 5.4 C 83 % 2.75 C
750 13-02-2019 14:25:00 5.4 C 83 % 2.75 C
Sensor: Nr:Datum:Temp:Feuchte:Taupunkt:
Aussen-T/F 751 13-02-2019 14:30:00 5.5 C 83 % 2.85 C
752 13-02-2019 14:35:00 5.5 C 83 % 2.85 C
753 13-02-2019 14:40:00 5.5 C 83 % 2.85 C
754 13-02-2019 14:45:00 5.5 C 83 % 2.85 C
755 13-02-2019 14:50:00 5.5 C 83 % 2.85 C
756 13-02-2019 14:55:00 5.5 C 83 % 2.85 C
757 13-02-2019 15:00:00 5.5 C 83 % 2.85 C
758 13-02-2019 15:05:00 5.5 C 83 % 2.85 C
759 13-02-2019 15:10:00 5.5 C 83 % 2.85 C
760 13-02-2019 15:15:00 5.5 C 83 % 2.85 C
761 13-02-2019 15:20:00 5.5 C 83 % 2.85 C
762 13-02-2019 15:25:00 5.6 C 83 % 2.95 C
763 13-02-2019 15:30:00 5.6 C 83 % 2.95 C
764 13-02-2019 15:35:00 5.6 C 83 % 2.95 C
765 13-02-2019 15:40:00 5.7 C 83 % 3.04 C
766 13-02-2019 15:45:00 5.7 C 83 % 3.04 C
767 13-02-2019 15:50:00 5.7 C 84 % 3.21 C
768 13-02-2019 15:55:00 5.8 C 84 % 3.31 C
769 13-02-2019 16:00:00 5.8 C 84 % 3.31 C
770 13-02-2019 16:05:00 5.8 C 84 % 3.31 C
771 13-02-2019 16:10:00 5.7 C 84 % 3.21 C
772 13-02-2019 16:15:00 5.7 C 85 % 3.38 C
773 13-02-2019 16:20:00 5.6 C 85 % 3.28 C
774 13-02-2019 16:25:00 5.6 C 85 % 3.28 C
775 13-02-2019 16:30:00 5.5 C 86 % 3.35 C
Sensor: Nr:Datum:Temp:Feuchte:Taupunkt:
Aussen-T/F 776 13-02-2019 16:35:00 5.4 C 86 % 3.25 C
777 13-02-2019 16:40:00 5.4 C 87 % 3.41 C
778 13-02-2019 16:45:00 5.4 C 87 % 3.41 C
779 13-02-2019 16:50:00 5.3 C 88 % 3.48 C
780 13-02-2019 16:55:00 5.3 C 88 % 3.48 C
781 13-02-2019 17:00:00 5.3 C 88 % 3.48 C
782 13-02-2019 17:05:00 5.2 C 88 % 3.38 C
783 13-02-2019 17:10:00 5.2 C 88 % 3.38 C
784 13-02-2019 17:15:00 5.1 C 88 % 3.28 C
785 13-02-2019 17:20:00 4.9 C 88 % 3.08 C
786 13-02-2019 17:25:00 4.8 C 88 % 2.99 C
787 13-02-2019 17:30:00 4.7 C 88 % 2.89 C
788 13-02-2019 17:35:00 4.5 C 89 % 2.85 C
789 13-02-2019 17:40:00 4.3 C 89 % 2.65 C
790 13-02-2019 17:45:00 4.2 C 89 % 2.55 C
791 13-02-2019 17:50:00 4.1 C 90 % 2.61 C
792 13-02-2019 17:55:00 4 C 89 % 2.36 C
793 13-02-2019 18:00:00 3.8 C 90 % 2.31 C
794 13-02-2019 18:05:00 3.7 C 90 % 2.22 C
795 13-02-2019 18:10:00 3.6 C 90 % 2.12 C
796 13-02-2019 18:15:00 3.4 C 90 % 1.92 C
797 13-02-2019 18:20:00 3.3 C 90 % 1.82 C
798 13-02-2019 18:25:00 3.3 C 91 % 1.98 C
799 13-02-2019 18:30:00 3.2 C 91 % 1.88 C
800 13-02-2019 18:35:00 3.1 C 91 % 1.78 C
Sensor: Nr:Datum:Temp:Feuchte:Taupunkt:
Aussen-T/F 801 13-02-2019 18:40:00 2.9 C 90 % 1.43 C
802 13-02-2019 18:45:00 2.8 C 91 % 1.48 C
803 13-02-2019 18:50:00 2.7 C 91 % 1.38 C
804 13-02-2019 18:55:00 2.7 C 91 % 1.38 C
805 13-02-2019 19:00:00 2.6 C 91 % 1.28 C
806 13-02-2019 19:05:00 2.4 C 91 % 1.08 C
807 13-02-2019 19:10:00 2.3 C 91 % 0.99 C
808 13-02-2019 19:15:00 2.1 C 91 % 0.79 C
809 13-02-2019 19:20:00 1.9 C 91 % 0.59 C
810 13-02-2019 19:25:00 1.7 C 91 % 0.39 C
811 13-02-2019 19:30:00 1.6 C 92 % 0.44 C
812 13-02-2019 19:35:00 1.6 C 92 % 0.44 C
813 13-02-2019 19:40:00 1.6 C 93 % 0.59 C
814 13-02-2019 19:45:00 1.6 C 93 % 0.59 C
815 13-02-2019 19:50:00 1.4 C 92 % 0.25 C
816 13-02-2019 19:55:00 1.4 C 92 % 0.25 C
817 13-02-2019 20:00:00 1.4 C 93 % 0.4 C
818 13-02-2019 20:05:00 1.3 C 93 % 0.3 C
819 13-02-2019 20:10:00 1.3 C 93 % 0.3 C
820 13-02-2019 20:15:00 1.3 C 93 % 0.3 C
821 13-02-2019 20:20:00 1.2 C 93 % 0.2 C
822 13-02-2019 20:25:00 1.2 C 93 % 0.2 C
823 13-02-2019 20:30:00 1.2 C 93 % 0.2 C
824 13-02-2019 20:35:00 1.1 C 93 % 0.1 C
825 13-02-2019 20:40:00 1.1 C 93 % 0.1 C
Sensor: Nr:Datum:Temp:Feuchte:Taupunkt:
Aussen-T/F 826 13-02-2019 20:45:00 1 C 93 % 0 C
827 13-02-2019 20:50:00 0.9 C 93 % -0.1 C
828 13-02-2019 20:55:00 0.8 C 92 % -0.35 C
829 13-02-2019 21:00:00 0.8 C 93 % -0.2 C
830 13-02-2019 21:05:00 0.7 C 93 % -0.3 C
831 13-02-2019 21:10:00 0.8 C 93 % -0.2 C
832 13-02-2019 21:15:00 0.9 C 93 % -0.1 C
833 13-02-2019 21:20:00 0.8 C 92 % -0.35 C
834 13-02-2019 21:25:00 0.7 C 92 % -0.45 C
835 13-02-2019 21:30:00 0.5 C 92 % -0.65 C
836 13-02-2019 21:35:00 0.4 C 92 % -0.74 C
837 13-02-2019 21:40:00 0.4 C 92 % -0.74 C
838 13-02-2019 21:45:00 0.3 C 92 % -0.84 C
839 13-02-2019 21:50:00 0.2 C 92 % -0.94 C
840 13-02-2019 21:55:00 0.2 C 92 % -0.94 C
841 13-02-2019 22:00:00 0.2 C 93 % -0.79 C
842 13-02-2019 22:05:00 0.2 C 93 % -0.79 C
843 13-02-2019 22:10:00 0.2 C 93 % -0.79 C
844 13-02-2019 22:15:00 0.1 C 93 % -0.89 C
845 13-02-2019 22:20:00 0.2 C 93 % -0.79 C
846 13-02-2019 22:25:00 0.2 C 93 % -0.79 C
847 13-02-2019 22:30:00 0.3 C 93 % -0.7 C
848 13-02-2019 22:35:00 0.2 C 93 % -0.79 C
849 13-02-2019 22:40:00 0.1 C 93 % -0.89 C
850 13-02-2019 22:45:00 0 C 93 % -0.99 C
Sensor: Nr:Datum:Temp:Feuchte:Taupunkt:
Aussen-T/F 851 13-02-2019 22:50:00 -0.1 C 93 % -1.09 C
852 13-02-2019 22:55:00 -0.1 C 93 % -1.09 C
853 13-02-2019 23:00:00 -0.1 C 93 % -1.09 C
854 13-02-2019 23:05:00 -0.2 C 93 % -1.19 C
855 13-02-2019 23:10:00 -0.3 C 93 % -1.29 C
856 13-02-2019 23:15:00 -0.3 C 93 % -1.29 C
857 13-02-2019 23:20:00 -0.3 C 93 % -1.29 C
858 13-02-2019 23:25:00 -0.4 C 93 % -1.39 C
859 13-02-2019 23:30:00 -0.6 C 93 % -1.59 C
860 13-02-2019 23:35:00 -0.6 C 93 % -1.59 C
861 13-02-2019 23:40:00 -0.6 C 93 % -1.59 C
862 13-02-2019 23:45:00 -0.6 C 93 % -1.59 C
863 13-02-2019 23:50:00 -0.7 C 93 % -1.69 C
864 13-02-2019 23:55:00 -0.7 C 93 % -1.69 C
865 14-02-2019 00:00:00 -0.7 C 93 % -1.69 C
866 14-02-2019 00:05:00 -0.7 C 93 % -1.69 C
867 14-02-2019 00:10:00 -0.7 C 93 % -1.69 C
868 14-02-2019 00:15:00 -0.7 C 93 % -1.69 C
869 14-02-2019 00:20:00 -0.7 C 94 % -1.54 C
870 14-02-2019 00:25:00 -0.7 C 94 % -1.54 C
871 14-02-2019 00:30:00 -0.6 C 94 % -1.44 C
872 14-02-2019 00:35:00 -0.6 C 93 % -1.59 C
873 14-02-2019 00:40:00 -0.7 C 93 % -1.69 C
874 14-02-2019 00:45:00 -0.8 C 93 % -1.79 C
875 14-02-2019 00:50:00 -0.8 C 93 % -1.79 C
Sensor: Nr:Datum:Temp:Feuchte:Taupunkt:
Aussen-T/F 876 14-02-2019 00:55:00 -0.9 C 93 % -1.89 C
877 14-02-2019 01:00:00 -1 C 93 % -1.99 C
878 14-02-2019 01:05:00 -1 C 94 % -1.84 C
879 14-02-2019 01:10:00 -1 C 94 % -1.84 C
880 14-02-2019 01:15:00 -1 C 94 % -1.84 C
881 14-02-2019 01:20:00 -1.1 C 94 % -1.94 C
882 14-02-2019 01:25:00 -1.1 C 94 % -1.94 C
883 14-02-2019 01:30:00 -1.1 C 94 % -1.94 C
884 14-02-2019 01:35:00 -1.1 C 94 % -1.94 C
885 14-02-2019 01:40:00 -1.1 C 94 % -1.94 C
886 14-02-2019 01:45:00 -1.1 C 94 % -1.94 C
887 14-02-2019 01:50:00 -1.1 C 94 % -1.94 C
888 14-02-2019 01:55:00 -1 C 94 % -1.84 C
889 14-02-2019 02:00:00 -1.1 C 94 % -1.94 C
890 14-02-2019 02:05:00 -1.1 C 94 % -1.94 C
891 14-02-2019 02:10:00 -1.2 C 94 % -2.04 C
892 14-02-2019 02:15:00 -1.2 C 94 % -2.04 C
893 14-02-2019 02:20:00 -1.2 C 94 % -2.04 C
894 14-02-2019 02:25:00 -1.1 C 94 % -1.94 C
895 14-02-2019 02:30:00 -1 C 95 % -1.7 C
896 14-02-2019 02:35:00 -0.9 C 95 % -1.6 C
897 14-02-2019 02:40:00 -0.9 C 95 % -1.6 C
898 14-02-2019 02:45:00 -1 C 94 % -1.84 C
899 14-02-2019 02:50:00 -1.2 C 94 % -2.04 C
900 14-02-2019 02:55:00 -1.3 C 94 % -2.14 C
Sensor: Nr:Datum:Temp:Feuchte:Taupunkt:
Aussen-T/F 901 14-02-2019 03:00:00 -1.3 C 94 % -2.14 C
902 14-02-2019 03:05:00 -1.2 C 94 % -2.04 C
903 14-02-2019 03:10:00 -1.3 C 94 % -2.14 C
904 14-02-2019 03:15:00 -1.4 C 94 % -2.24 C
905 14-02-2019 03:20:00 -1.5 C 94 % -2.34 C
906 14-02-2019 03:25:00 -1.6 C 94 % -2.44 C
907 14-02-2019 03:30:00 -1.6 C 94 % -2.44 C
908 14-02-2019 03:35:00 -1.7 C 94 % -2.54 C
909 14-02-2019 03:40:00 -1.6 C 95 % -2.29 C
910 14-02-2019 03:45:00 -1.7 C 94 % -2.54 C
911 14-02-2019 03:50:00 -1.7 C 94 % -2.54 C
912 14-02-2019 03:55:00 -1.8 C 94 % -2.64 C
913 14-02-2019 04:00:00 -1.8 C 94 % -2.64 C
914 14-02-2019 04:05:00 -1.8 C 94 % -2.64 C
915 14-02-2019 04:10:00 -1.8 C 95 % -2.49 C
916 14-02-2019 04:15:00 -1.8 C 95 % -2.49 C
917 14-02-2019 04:20:00 -1.8 C 95 % -2.49 C
918 14-02-2019 04:25:00 -1.8 C 95 % -2.49 C
919 14-02-2019 04:30:00 -1.8 C 95 % -2.49 C
920 14-02-2019 04:35:00 -1.8 C 95 % -2.49 C
921 14-02-2019 04:40:00 -1.7 C 95 % -2.39 C
922 14-02-2019 04:45:00 -1.7 C 95 % -2.39 C
923 14-02-2019 04:50:00 -1.7 C 95 % -2.39 C
924 14-02-2019 04:55:00 -1.8 C 95 % -2.49 C
925 14-02-2019 05:00:00 -1.9 C 95 % -2.59 C
Sensor: Nr:Datum:Temp:Feuchte:Taupunkt:
Aussen-T/F 926 14-02-2019 05:05:00 -1.9 C 95 % -2.59 C
927 14-02-2019 05:10:00 -1.9 C 95 % -2.59 C
928 14-02-2019 05:15:00 -1.9 C 95 % -2.59 C
929 14-02-2019 05:20:00 -2 C 95 % -2.69 C
930 14-02-2019 05:25:00 -2.1 C 95 % -2.79 C
931 14-02-2019 05:30:00 -2 C 95 % -2.69 C
932 14-02-2019 05:35:00 -1.8 C 95 % -2.49 C
933 14-02-2019 05:40:00 -1.8 C 95 % -2.49 C
934 14-02-2019 05:45:00 -2 C 95 % -2.69 C
935 14-02-2019 05:50:00 -2.1 C 95 % -2.79 C
936 14-02-2019 05:55:00 -2.2 C 95 % -2.89 C
937 14-02-2019 06:00:00 -2.3 C 95 % -2.99 C
938 14-02-2019 06:05:00 -2.4 C 95 % -3.09 C
939 14-02-2019 06:10:00 -2.4 C 95 % -3.09 C
940 14-02-2019 06:15:00 -2.4 C 95 % -3.09 C
941 14-02-2019 06:20:00 -2.6 C 95 % -3.29 C
942 14-02-2019 06:25:00 -2.6 C 95 % -3.29 C
943 14-02-2019 06:30:00 -2.4 C 95 % -3.09 C
944 14-02-2019 06:35:00 -2.4 C 95 % -3.09 C
945 14-02-2019 06:40:00 -2.4 C 95 % -3.09 C
946 14-02-2019 06:45:00 -2.4 C 95 % -3.09 C
947 14-02-2019 06:50:00 -2.5 C 95 % -3.19 C
948 14-02-2019 06:55:00 -2.6 C 95 % -3.29 C
949 14-02-2019 07:00:00 -2.7 C 95 % -3.39 C
950 14-02-2019 07:05:00 -2.7 C 95 % -3.39 C
Sensor: Nr:Datum:Temp:Feuchte:Taupunkt:
Aussen-T/F 951 14-02-2019 07:10:00 -2.7 C 95 % -3.39 C
952 14-02-2019 07:15:00 -2.7 C 95 % -3.39 C
953 14-02-2019 07:20:00 -2.7 C 95 % -3.39 C
954 14-02-2019 07:25:00 -2.6 C 95 % -3.29 C
955 14-02-2019 07:30:00 -2.6 C 95 % -3.29 C
956 14-02-2019 07:35:00 -2.7 C 95 % -3.39 C
957 14-02-2019 07:40:00 -2.6 C 95 % -3.29 C
958 14-02-2019 07:45:00 -2.6 C 95 % -3.29 C
959 14-02-2019 07:50:00 -2.6 C 96 % -3.15 C
960 14-02-2019 07:55:00 -2.6 C 96 % -3.15 C
961 14-02-2019 08:00:00 -2.6 C 95 % -3.29 C
962 14-02-2019 08:05:00 -2.6 C 95 % -3.29 C
963 14-02-2019 08:10:00 -2.6 C 95 % -3.29 C
964 14-02-2019 08:15:00 -2.6 C 95 % -3.29 C
965 14-02-2019 08:20:00 -2.6 C 95 % -3.29 C
966 14-02-2019 08:25:00 -2.6 C 96 % -3.15 C
967 14-02-2019 08:30:00 -2.4 C 96 % -2.95 C
968 14-02-2019 08:35:00 -2.3 C 96 % -2.85 C
969 14-02-2019 08:40:00 -2.3 C 96 % -2.85 C
970 14-02-2019 08:45:00 -2.2 C 96 % -2.75 C
971 14-02-2019 08:50:00 -2.2 C 96 % -2.75 C
972 14-02-2019 08:55:00 -2.2 C 96 % -2.75 C
973 14-02-2019 09:00:00 -2.1 C 96 % -2.65 C
974 14-02-2019 09:05:00 -2.1 C 96 % -2.65 C
975 14-02-2019 09:10:00 -2.1 C 96 % -2.65 C
Sensor: Nr:Datum:Temp:Feuchte:Taupunkt:
Aussen-T/F 976 14-02-2019 09:15:00 -2.1 C 96 % -2.65 C
977 14-02-2019 09:20:00 -2.1 C 96 % -2.65 C
978 14-02-2019 09:25:00 -2.1 C 96 % -2.65 C
979 14-02-2019 09:30:00 -2 C 96 % -2.55 C
980 14-02-2019 09:35:00 -2.1 C 96 % -2.65 C
981 14-02-2019 09:40:00 -2.1 C 96 % -2.65 C
982 14-02-2019 09:45:00 -2 C 96 % -2.55 C
983 14-02-2019 09:50:00 -2.1 C 96 % -2.65 C
984 14-02-2019 09:55:00 -2.1 C 96 % -2.65 C
985 14-02-2019 10:00:00 -2.1 C 96 % -2.65 C
986 14-02-2019 10:05:00 -2.1 C 96 % -2.65 C
987 14-02-2019 10:10:00 -2 C 96 % -2.55 C
988 14-02-2019 10:15:00 -1.9 C 96 % -2.45 C
989 14-02-2019 10:20:00 -1.8 C 96 % -2.35 C
990 14-02-2019 10:25:00 -1.7 C 96 % -2.25 C
991 14-02-2019 10:30:00 -1.6 C 96 % -2.15 C
992 14-02-2019 10:35:00 -1.5 C 96 % -2.05 C
993 14-02-2019 10:40:00 -1.4 C 96 % -1.95 C
994 14-02-2019 10:45:00 -1.4 C 96 % -1.95 C
995 14-02-2019 10:50:00 -1.4 C 96 % -1.95 C
996 14-02-2019 10:55:00 -1.4 C 96 % -1.95 C
997 14-02-2019 11:00:00 -1.3 C 96 % -1.85 C
998 14-02-2019 11:05:00 -1.3 C 96 % -1.85 C
999 14-02-2019 11:10:00 -1.2 C 96 % -1.75 C
1000 14-02-2019 11:15:00 -1.2 C 96 % -1.75 C
Sensor: Nr:Datum:Temp:Feuchte:Taupunkt:
Aussen-T/F 1001 14-02-2019 11:20:00 -1.1 C 96 % -1.66 C
1002 14-02-2019 11:25:00 -1.1 C 96 % -1.66 C
1003 14-02-2019 11:30:00 -0.9 C 97 % -1.32 C
1004 14-02-2019 11:35:00 -0.8 C 96 % -1.36 C
1005 14-02-2019 11:40:00 -0.7 C 97 % -1.12 C
1006 14-02-2019 11:45:00 -0.6 C 97 % -1.02 C
1007 14-02-2019 11:50:00 -0.4 C 97 % -0.82 C
1008 14-02-2019 11:55:00 -0.2 C 97 % -0.62 C
1009 14-02-2019 12:00:00 -0.1 C 97 % -0.52 C
1010 14-02-2019 12:05:00 0.1 C 97 % -0.32 C
1011 14-02-2019 12:10:00 0.1 C 97 % -0.32 C
1012 14-02-2019 12:15:00 0.2 C 97 % -0.22 C
1013 14-02-2019 12:20:00 0.3 C 97 % -0.12 C
1014 14-02-2019 12:25:00 0.4 C 97 % -0.02 C
1015 14-02-2019 12:30:00 0.6 C 97 % 0.18 C
1016 14-02-2019 12:35:00 0.8 C 97 % 0.38 C
1017 14-02-2019 12:40:00 1.1 C 97 % 0.68 C
1018 14-02-2019 12:45:00 1.3 C 97 % 0.88 C
1019 14-02-2019 12:50:00 1.6 C 97 % 1.18 C
1020 14-02-2019 12:55:00 1.7 C 97 % 1.28 C
1021 14-02-2019 13:00:00 1.8 C 97 % 1.38 C
1022 14-02-2019 13:05:00 1.9 C 97 % 1.48 C
1023 14-02-2019 13:10:00 2.1 C 97 % 1.67 C
1024 14-02-2019 13:15:00 2.2 C 97 % 1.77 C
1025 14-02-2019 13:20:00 2.4 C 97 % 1.97 C
Sensor: Nr:Datum:Temp:Feuchte:Taupunkt:
Aussen-T/F 1026 14-02-2019 13:25:00 2.6 C 97 % 2.17 C
1027 14-02-2019 13:30:00 2.8 C 97 % 2.37 C
1028 14-02-2019 13:35:00 3 C 97 % 2.57 C
1029 14-02-2019 13:40:00 3.3 C 97 % 2.87 C
1030 14-02-2019 13:45:00 3.5 C 97 % 3.07 C
1031 14-02-2019 13:50:00 3.7 C 97 % 3.27 C
1032 14-02-2019 13:55:00 3.8 C 96 % 3.22 C
1033 14-02-2019 14:00:00 3.9 C 96 % 3.32 C
1034 14-02-2019 14:05:00 4.2 C 96 % 3.62 C
1035 14-02-2019 14:10:00 4.3 C 96 % 3.72 C
1036 14-02-2019 14:15:00 4.4 C 95 % 3.67 C
1037 14-02-2019 14:20:00 4.4 C 94 % 3.52 C
1038 14-02-2019 14:25:00 4.5 C 94 % 3.62 C
1039 14-02-2019 14:30:00 4.6 C 94 % 3.72 C
1040 14-02-2019 14:35:00 4.8 C 94 % 3.92 C
1041 14-02-2019 14:40:00 4.9 C 94 % 4.02 C
1042 14-02-2019 14:45:00 5.1 C 94 % 4.22 C
1043 14-02-2019 14:50:00 5.3 C 94 % 4.41 C
1044 14-02-2019 14:55:00 5.5 C 93 % 4.46 C
1045 14-02-2019 15:00:00 5.7 C 93 % 4.66 C
1046 14-02-2019 15:05:00 6 C 93 % 4.96 C
1047 14-02-2019 15:10:00 6.3 C 93 % 5.25 C
1048 14-02-2019 15:15:00 6.6 C 92 % 5.4 C
1049 14-02-2019 15:20:00 6.7 C 91 % 5.34 C
1050 14-02-2019 15:25:00 6.7 C 90 % 5.18 C
Sensor: Nr:Datum:Temp:Feuchte:Taupunkt:
Aussen-T/F 1051 14-02-2019 15:30:00 6.7 C 89 % 5.02 C
1052 14-02-2019 15:35:00 6.7 C 89 % 5.02 C
1053 14-02-2019 15:40:00 6.7 C 89 % 5.02 C
1054 14-02-2019 15:45:00 6.6 C 89 % 4.92 C
1055 14-02-2019 15:50:00 6.6 C 88 % 4.76 C
1056 14-02-2019 15:55:00 6.5 C 88 % 4.66 C
1057 14-02-2019 16:00:00 6.4 C 88 % 4.56 C
1058 14-02-2019 16:05:00 6.4 C 88 % 4.56 C
1059 14-02-2019 16:10:00 6.3 C 88 % 4.46 C
1060 14-02-2019 16:15:00 6.3 C 88 % 4.46 C
1061 14-02-2019 16:20:00 6.2 C 88 % 4.36 C
1062 14-02-2019 16:25:00 6.1 C 88 % 4.27 C
1063 14-02-2019 16:30:00 6.1 C 88 % 4.27 C
1064 14-02-2019 16:35:00 5.9 C 88 % 4.07 C
1065 14-02-2019 16:40:00 5.9 C 88 % 4.07 C
1066 14-02-2019 16:45:00 5.8 C 88 % 3.97 C
1067 14-02-2019 16:50:00 5.8 C 88 % 3.97 C
1068 14-02-2019 16:55:00 5.8 C 89 % 4.13 C
1069 14-02-2019 17:00:00 5.8 C 88 % 3.97 C
1070 14-02-2019 17:05:00 5.8 C 88 % 3.97 C
1071 14-02-2019 17:10:00 5.8 C 88 % 3.97 C
1072 14-02-2019 17:15:00 5.7 C 87 % 3.71 C
1073 14-02-2019 17:20:00 5.7 C 88 % 3.87 C
1074 14-02-2019 17:25:00 5.7 C 88 % 3.87 C
1075 14-02-2019 17:30:00 5.7 C 87 % 3.71 C
Sensor: Nr:Datum:Temp:Feuchte:Taupunkt:
Aussen-T/F 1076 14-02-2019 17:35:00 5.6 C 88 % 3.77 C
1077 14-02-2019 17:40:00 5.6 C 88 % 3.77 C
1078 14-02-2019 17:45:00 5.4 C 88 % 3.58 C
1079 14-02-2019 17:50:00 5.4 C 88 % 3.58 C
1080 14-02-2019 17:55:00 5.3 C 88 % 3.48 C
1081 14-02-2019 18:00:00 5.2 C 88 % 3.38 C
1082 14-02-2019 18:05:00 5 C 87 % 3.02 C
1083 14-02-2019 18:10:00 4.9 C 87 % 2.92 C
1084 14-02-2019 18:15:00 4.8 C 87 % 2.82 C
1085 14-02-2019 18:20:00 4.7 C 87 % 2.73 C
1086 14-02-2019 18:25:00 4.6 C 87 % 2.63 C
1087 14-02-2019 18:30:00 4.5 C 87 % 2.53 C
1088 14-02-2019 18:35:00 4.4 C 87 % 2.43 C
1089 14-02-2019 18:40:00 4.3 C 86 % 2.17 C
1090 14-02-2019 18:45:00 4.3 C 86 % 2.17 C
1091 14-02-2019 18:50:00 4.2 C 85 % 1.91 C
1092 14-02-2019 18:55:00 4.1 C 85 % 1.81 C
1093 14-02-2019 19:00:00 3.9 C 85 % 1.61 C
1094 14-02-2019 19:05:00 3.8 C 85 % 1.52 C
1095 14-02-2019 19:10:00 3.6 C 85 % 1.32 C
1096 14-02-2019 19:15:00 3.4 C 85 % 1.12 C
1097 14-02-2019 19:20:00 3.3 C 85 % 1.03 C
1098 14-02-2019 19:25:00 3.2 C 85 % 0.93 C
1099 14-02-2019 19:30:00 3.1 C 85 % 0.83 C
1100 14-02-2019 19:35:00 3.1 C 85 % 0.83 C
Sensor: Nr:Datum:Temp:Feuchte:Taupunkt:
Aussen-T/F 1101 14-02-2019 19:40:00 3 C 85 % 0.73 C
1102 14-02-2019 19:45:00 3 C 86 % 0.89 C
1103 14-02-2019 19:50:00 3.1 C 86 % 0.99 C
1104 14-02-2019 19:55:00 3.2 C 86 % 1.09 C
1105 14-02-2019 20:00:00 3.2 C 86 % 1.09 C
1106 14-02-2019 20:05:00 3.3 C 87 % 1.35 C
1107 14-02-2019 20:10:00 3.3 C 87 % 1.35 C
1108 14-02-2019 20:15:00 3.2 C 87 % 1.25 C
1109 14-02-2019 20:20:00 3.1 C 87 % 1.15 C
1110 14-02-2019 20:25:00 2.9 C 86 % 0.8 C
1111 14-02-2019 20:30:00 2.8 C 86 % 0.7 C
1112 14-02-2019 20:35:00 2.6 C 86 % 0.5 C
1113 14-02-2019 20:40:00 2.4 C 87 % 0.46 C
1114 14-02-2019 20:45:00 2.3 C 88 % 0.52 C
1115 14-02-2019 20:50:00 2.2 C 88 % 0.42 C
1116 14-02-2019 20:55:00 2.1 C 88 % 0.33 C
1117 14-02-2019 21:00:00 2 C 89 % 0.38 C
1118 14-02-2019 21:05:00 1.9 C 89 % 0.28 C
1119 14-02-2019 21:10:00 1.8 C 89 % 0.19 C
1120 14-02-2019 21:15:00 1.8 C 90 % 0.34 C
1121 14-02-2019 21:20:00 1.8 C 90 % 0.34 C
1122 14-02-2019 21:25:00 1.6 C 89 % -0.01 C
1123 14-02-2019 21:30:00 1.5 C 89 % -0.11 C
1124 14-02-2019 21:35:00 1.4 C 90 % -0.06 C
1125 14-02-2019 21:40:00 1.4 C 89 % -0.21 C
Sensor: Nr:Datum:Temp:Feuchte:Taupunkt:
Aussen-T/F 1126 14-02-2019 21:45:00 1.2 C 89 % -0.41 C
1127 14-02-2019 21:50:00 1.2 C 90 % -0.25 C
1128 14-02-2019 21:55:00 1 C 90 % -0.45 C
1129 14-02-2019 22:00:00 0.9 C 90 % -0.55 C
1130 14-02-2019 22:05:00 0.8 C 90 % -0.65 C
1131 14-02-2019 22:10:00 0.8 C 91 % -0.5 C
1132 14-02-2019 22:15:00 0.7 C 91 % -0.6 C
1133 14-02-2019 22:20:00 0.6 C 91 % -0.7 C
1134 14-02-2019 22:25:00 0.5 C 91 % -0.79 C
1135 14-02-2019 22:30:00 0.4 C 91 % -0.89 C
1136 14-02-2019 22:35:00 0.3 C 91 % -0.99 C
1137 14-02-2019 22:40:00 0.3 C 92 % -0.84 C
1138 14-02-2019 22:45:00 0.2 C 92 % -0.94 C
1139 14-02-2019 22:50:00 0.2 C 92 % -0.94 C
1140 14-02-2019 22:55:00 0.2 C 92 % -0.94 C
1141 14-02-2019 23:00:00 0.1 C 92 % -1.04 C
1142 14-02-2019 23:05:00 0.1 C 93 % -0.89 C
1143 14-02-2019 23:10:00 0.1 C 93 % -0.89 C
1144 14-02-2019 23:15:00 0.1 C 93 % -0.89 C
1145 14-02-2019 23:20:00 0.1 C 93 % -0.89 C
1146 14-02-2019 23:25:00 0 C 93 % -0.99 C
1147 14-02-2019 23:30:00 -0.1 C 93 % -1.09 C
1148 14-02-2019 23:35:00 -0.2 C 93 % -1.19 C
1149 14-02-2019 23:40:00 -0.2 C 93 % -1.19 C
1150 14-02-2019 23:45:00 -0.2 C 93 % -1.19 C
Sensor: Nr:Datum:Temp:Feuchte:Taupunkt:
Aussen-T/F 1151 14-02-2019 23:50:00 -0.2 C 93 % -1.19 C
1152 14-02-2019 23:55:00 -0.3 C 93 % -1.29 C
1153 15-02-2019 00:00:00 -0.3 C 93 % -1.29 C
1154 15-02-2019 00:05:00 -0.4 C 93 % -1.39 C
1155 15-02-2019 00:10:00 -0.4 C 94 % -1.25 C
1156 15-02-2019 00:15:00 -0.4 C 94 % -1.25 C
1157 15-02-2019 00:20:00 -0.4 C 94 % -1.25 C
1158 15-02-2019 00:25:00 -0.6 C 93 % -1.59 C
1159 15-02-2019 00:30:00 -0.6 C 94 % -1.44 C
1160 15-02-2019 00:35:00 -0.7 C 94 % -1.54 C
1161 15-02-2019 00:40:00 -0.7 C 94 % -1.54 C
1162 15-02-2019 00:45:00 -0.7 C 94 % -1.54 C
1163 15-02-2019 00:50:00 -0.7 C 94 % -1.54 C
1164 15-02-2019 00:55:00 -0.7 C 94 % -1.54 C
1165 15-02-2019 01:00:00 -0.7 C 94 % -1.54 C
1166 15-02-2019 01:05:00 -0.8 C 94 % -1.64 C
1167 15-02-2019 01:10:00 -0.8 C 94 % -1.64 C
1168 15-02-2019 01:15:00 -0.8 C 94 % -1.64 C
1169 15-02-2019 01:20:00 -0.9 C 94 % -1.74 C
1170 15-02-2019 01:25:00 -1 C 94 % -1.84 C
1171 15-02-2019 01:30:00 -1 C 94 % -1.84 C
1172 15-02-2019 01:35:00 -1 C 94 % -1.84 C
1173 15-02-2019 01:40:00 -1 C 94 % -1.84 C
1174 15-02-2019 01:45:00 -1 C 95 % -1.7 C
1175 15-02-2019 01:50:00 -1.1 C 95 % -1.8 C
Sensor: Nr:Datum:Temp:Feuchte:Taupunkt:
Aussen-T/F 1176 15-02-2019 01:55:00 -1.1 C 95 % -1.8 C
1177 15-02-2019 02:00:00 -1.1 C 95 % -1.8 C
1178 15-02-2019 02:05:00 -1 C 95 % -1.7 C
1179 15-02-2019 02:10:00 -1 C 95 % -1.7 C
1180 15-02-2019 02:15:00 -1.1 C 94 % -1.94 C
1181 15-02-2019 02:20:00 -1.1 C 94 % -1.94 C
1182 15-02-2019 02:25:00 -1.1 C 95 % -1.8 C
1183 15-02-2019 02:30:00 -1.1 C 95 % -1.8 C
1184 15-02-2019 02:35:00 -1.2 C 95 % -1.9 C
1185 15-02-2019 02:40:00 -1.2 C 95 % -1.9 C
1186 15-02-2019 02:45:00 -1.3 C 95 % -2 C
1187 15-02-2019 02:50:00 -1.3 C 95 % -2 C
1188 15-02-2019 02:55:00 -1.3 C 95 % -2 C
1189 15-02-2019 03:00:00 -1.3 C 95 % -2 C
1190 15-02-2019 03:05:00 -1.3 C 95 % -2 C
1191 15-02-2019 03:10:00 -1.4 C 95 % -2.1 C
1192 15-02-2019 03:15:00 -1.4 C 95 % -2.1 C
1193 15-02-2019 03:20:00 -1.4 C 95 % -2.1 C
1194 15-02-2019 03:25:00 -1.4 C 95 % -2.1 C
1195 15-02-2019 03:30:00 -1.5 C 95 % -2.19 C
1196 15-02-2019 03:35:00 -1.5 C 95 % -2.19 C
1197 15-02-2019 03:40:00 -1.5 C 95 % -2.19 C
1198 15-02-2019 03:45:00 -1.5 C 95 % -2.19 C
1199 15-02-2019 03:50:00 -1.4 C 95 % -2.1 C
1200 15-02-2019 03:55:00 -1.3 C 95 % -2 C
Sensor: Nr:Datum:Temp:Feuchte:Taupunkt:
Aussen-T/F 1201 15-02-2019 04:00:00 -1.2 C 95 % -1.9 C
1202 15-02-2019 04:05:00 -1.2 C 95 % -1.9 C
1203 15-02-2019 04:10:00 -1.2 C 95 % -1.9 C
1204 15-02-2019 04:15:00 -1.3 C 95 % -2 C
1205 15-02-2019 04:20:00 -1.4 C 95 % -2.1 C
1206 15-02-2019 04:25:00 -1.5 C 95 % -2.19 C
1207 15-02-2019 04:30:00 -1.6 C 95 % -2.29 C
1208 15-02-2019 04:35:00 -1.7 C 95 % -2.39 C
1209 15-02-2019 04:40:00 -1.8 C 95 % -2.49 C
1210 15-02-2019 04:45:00 -1.8 C 95 % -2.49 C
1211 15-02-2019 04:50:00 -1.7 C 95 % -2.39 C
1212 15-02-2019 04:55:00 -1.7 C 95 % -2.39 C
1213 15-02-2019 05:00:00 -1.8 C 95 % -2.49 C
1214 15-02-2019 05:05:00 -1.8 C 95 % -2.49 C
1215 15-02-2019 05:10:00 -1.9 C 95 % -2.59 C
1216 15-02-2019 05:15:00 -1.9 C 95 % -2.59 C
1217 15-02-2019 05:20:00 -1.8 C 95 % -2.49 C
1218 15-02-2019 05:25:00 -1.9 C 95 % -2.59 C
1219 15-02-2019 05:30:00 -1.9 C 95 % -2.59 C
1220 15-02-2019 05:35:00 -1.9 C 95 % -2.59 C
1221 15-02-2019 05:40:00 -1.9 C 95 % -2.59 C
1222 15-02-2019 05:45:00 -1.9 C 95 % -2.59 C
1223 15-02-2019 05:50:00 -1.9 C 95 % -2.59 C
1224 15-02-2019 05:55:00 -2 C 95 % -2.69 C
1225 15-02-2019 06:00:00 -2 C 95 % -2.69 C
Sensor: Nr:Datum:Temp:Feuchte:Taupunkt:
Aussen-T/F 1226 15-02-2019 06:05:00 -2.1 C 95 % -2.79 C
1227 15-02-2019 06:10:00 -2.1 C 95 % -2.79 C
1228 15-02-2019 06:15:00 -2.1 C 95 % -2.79 C
1229 15-02-2019 06:20:00 -2.2 C 95 % -2.89 C
1230 15-02-2019 06:25:00 -2.2 C 95 % -2.89 C
1231 15-02-2019 06:30:00 -2.1 C 95 % -2.79 C
1232 15-02-2019 06:35:00 -2.1 C 95 % -2.79 C
1233 15-02-2019 06:40:00 -2 C 95 % -2.69 C
1234 15-02-2019 06:45:00 -1.9 C 96 % -2.45 C
1235 15-02-2019 06:50:00 -2 C 96 % -2.55 C
1236 15-02-2019 06:55:00 -2.1 C 95 % -2.79 C
1237 15-02-2019 07:00:00 -2.2 C 95 % -2.89 C
1238 15-02-2019 07:05:00 -2.2 C 95 % -2.89 C
1239 15-02-2019 07:10:00 -2.3 C 95 % -2.99 C
1240 15-02-2019 07:15:00 -2.3 C 95 % -2.99 C
1241 15-02-2019 07:20:00 -2.4 C 95 % -3.09 C
1242 15-02-2019 07:25:00 -2.4 C 95 % -3.09 C
1243 15-02-2019 07:30:00 -2.5 C 95 % -3.19 C
1244 15-02-2019 07:35:00 -2.5 C 95 % -3.19 C
1245 15-02-2019 07:40:00 -2.5 C 95 % -3.19 C
1246 15-02-2019 07:45:00 -2.5 C 95 % -3.19 C
1247 15-02-2019 07:50:00 -2.5 C 95 % -3.19 C
1248 15-02-2019 07:55:00 -2.5 C 95 % -3.19 C
1249 15-02-2019 08:00:00 -2.4 C 96 % -2.95 C
1250 15-02-2019 08:05:00 -2.4 C 96 % -2.95 C
Sensor: Nr:Datum:Temp:Feuchte:Taupunkt:
Aussen-T/F 1251 15-02-2019 08:10:00 -2.3 C 96 % -2.85 C
1252 15-02-2019 08:15:00 -2.2 C 96 % -2.75 C
1253 15-02-2019 08:20:00 -2.2 C 96 % -2.75 C
1254 15-02-2019 08:25:00 -2.1 C 96 % -2.65 C
1255 15-02-2019 08:30:00 -2.1 C 96 % -2.65 C
1256 15-02-2019 08:35:00 -2.1 C 96 % -2.65 C
1257 15-02-2019 08:40:00 -2.1 C 96 % -2.65 C
1258 15-02-2019 08:45:00 -2.1 C 96 % -2.65 C
1259 15-02-2019 08:50:00 -2.2 C 96 % -2.75 C
1260 15-02-2019 08:55:00 -2.2 C 96 % -2.75 C
1261 15-02-2019 09:00:00 -2.1 C 96 % -2.65 C
1262 15-02-2019 09:05:00 -2.1 C 96 % -2.65 C
1263 15-02-2019 09:10:00 -2 C 96 % -2.55 C
1264 15-02-2019 09:15:00 -1.9 C 96 % -2.45 C
1265 15-02-2019 09:20:00 -1.8 C 96 % -2.35 C
1266 15-02-2019 09:25:00 -1.8 C 96 % -2.35 C
1267 15-02-2019 09:30:00 -1.7 C 96 % -2.25 C
1268 15-02-2019 09:35:00 -1.5 C 96 % -2.05 C
1269 15-02-2019 09:40:00 -1.5 C 96 % -2.05 C
1270 15-02-2019 09:45:00 -1.4 C 96 % -1.95 C
1271 15-02-2019 09:50:00 -1.3 C 96 % -1.85 C
1272 15-02-2019 09:55:00 -1.2 C 96 % -1.75 C
1273 15-02-2019 10:00:00 -1.2 C 96 % -1.75 C
1274 15-02-2019 10:05:00 -1.1 C 96 % -1.66 C
1275 15-02-2019 10:10:00 -1 C 96 % -1.56 C
Sensor: Nr:Datum:Temp:Feuchte:Taupunkt:
Aussen-T/F 1276 15-02-2019 10:15:00 -0.9 C 96 % -1.46 C
1277 15-02-2019 10:20:00 -0.9 C 96 % -1.46 C
1278 15-02-2019 10:25:00 -0.8 C 96 % -1.36 C
1279 15-02-2019 10:30:00 -0.7 C 96 % -1.26 C
1280 15-02-2019 10:35:00 -0.6 C 96 % -1.16 C
1281 15-02-2019 10:40:00 -0.5 C 96 % -1.06 C
1282 15-02-2019 10:45:00 -0.3 C 97 % -0.72 C
1283 15-02-2019 10:50:00 -0.3 C 97 % -0.72 C
1284 15-02-2019 10:55:00 -0.1 C 96 % -0.66 C
1285 15-02-2019 11:00:00 0.1 C 97 % -0.32 C
1286 15-02-2019 11:05:00 0.3 C 97 % -0.12 C
1287 15-02-2019 11:10:00 0.6 C 97 % 0.18 C
1288 15-02-2019 11:15:00 0.8 C 97 % 0.38 C
1289 15-02-2019 11:20:00 1 C 97 % 0.58 C
1290 15-02-2019 11:25:00 1.2 C 97 % 0.78 C
1291 15-02-2019 11:30:00 1.4 C 97 % 0.98 C
1292 15-02-2019 11:35:00 1.7 C 97 % 1.28 C
1293 15-02-2019 11:40:00 1.8 C 97 % 1.38 C
1294 15-02-2019 11:45:00 2 C 97 % 1.58 C
1295 15-02-2019 11:50:00 2.1 C 97 % 1.67 C
1296 15-02-2019 11:55:00 2.2 C 97 % 1.77 C
1297 15-02-2019 12:00:00 2.2 C 97 % 1.77 C
1298 15-02-2019 12:05:00 2.3 C 97 % 1.87 C
1299 15-02-2019 12:10:00 2.6 C 97 % 2.17 C
1300 15-02-2019 12:15:00 2.7 C 97 % 2.27 C
Sensor: Nr:Datum:Temp:Feuchte:Taupunkt:
Aussen-T/F 1301 15-02-2019 12:20:00 2.9 C 97 % 2.47 C
1302 15-02-2019 12:25:00 3.2 C 97 % 2.77 C
1303 15-02-2019 12:30:00 3.6 C 97 % 3.17 C
1304 15-02-2019 12:35:00 3.8 C 97 % 3.37 C
1305 15-02-2019 12:40:00 4.1 C 97 % 3.67 C
1306 15-02-2019 12:45:00 4.3 C 96 % 3.72 C
1307 15-02-2019 12:50:00 4.6 C 96 % 4.02 C
1308 15-02-2019 12:55:00 4.7 C 95 % 3.97 C
1309 15-02-2019 13:00:00 4.8 C 95 % 4.07 C
1310 15-02-2019 13:05:00 4.9 C 94 % 4.02 C
1311 15-02-2019 13:10:00 5.1 C 94 % 4.22 C
1312 15-02-2019 13:15:00 5.3 C 94 % 4.41 C
1313 15-02-2019 13:20:00 5.5 C 93 % 4.46 C
1314 15-02-2019 13:25:00 5.7 C 93 % 4.66 C
1315 15-02-2019 13:30:00 5.9 C 92 % 4.7 C
1316 15-02-2019 13:35:00 6.2 C 91 % 4.84 C
1317 15-02-2019 13:40:00 6.5 C 90 % 4.98 C
1318 15-02-2019 13:45:00 6.8 C 89 % 5.12 C
1319 15-02-2019 13:50:00 7.1 C 88 % 5.25 C
1320 15-02-2019 13:55:00 7.4 C 86 % 5.22 C
1321 15-02-2019 14:00:00 7.7 C 85 % 5.34 C
1322 15-02-2019 14:05:00 7.8 C 84 % 5.27 C
1323 15-02-2019 14:10:00 8.1 C 84 % 5.56 C
1324 15-02-2019 14:15:00 8.2 C 83 % 5.49 C
1325 15-02-2019 14:20:00 8.3 C 82 % 5.41 C
Sensor: Nr:Datum:Temp:Feuchte:Taupunkt:
Aussen-T/F 1326 15-02-2019 14:25:00 8.3 C 82 % 5.41 C
1327 15-02-2019 14:30:00 8.3 C 82 % 5.41 C
1328 15-02-2019 14:35:00 8.3 C 82 % 5.41 C
1329 15-02-2019 14:40:00 8.4 C 82 % 5.51 C
1330 15-02-2019 14:45:00 8.4 C 82 % 5.51 C
1331 15-02-2019 14:50:00 8.6 C 82 % 5.71 C
1332 15-02-2019 14:55:00 8.7 C 82 % 5.8 C
1333 15-02-2019 15:00:00 8.8 C 81 % 5.72 C
1334 15-02-2019 15:05:00 8.9 C 80 % 5.64 C
1335 15-02-2019 15:10:00 9.2 C 80 % 5.94 C
1336 15-02-2019 15:15:00 9.3 C 79 % 5.85 C
1337 15-02-2019 15:20:00 9.5 C 79 % 6.05 C
1338 15-02-2019 15:25:00 9.6 C 78 % 5.96 C
1339 15-02-2019 15:30:00 9.8 C 77 % 5.97 C
1340 15-02-2019 15:35:00 9.8 C 77 % 5.97 C
1341 15-02-2019 15:40:00 9.9 C 76 % 5.87 C
1342 15-02-2019 15:45:00 9.9 C 75 % 5.68 C
1343 15-02-2019 15:50:00 10.1 C 75 % 5.88 C
1344 15-02-2019 15:55:00 10.2 C 72 % 5.39 C
1345 15-02-2019 16:00:00 10.4 C 71 % 5.38 C
1346 15-02-2019 16:05:00 10.8 C 64 % 4.27 C
1347 15-02-2019 16:10:00 11.2 C 68 % 5.52 C
1348 15-02-2019 16:15:00 11.3 C 68 % 5.62 C
1349 15-02-2019 16:20:00 11.1 C 67 % 5.21 C
1350 15-02-2019 16:25:00 10.9 C 68 % 5.23 C
Sensor: Nr:Datum:Temp:Feuchte:Taupunkt:
Aussen-T/F 1351 15-02-2019 16:30:00 10.8 C 69 % 5.35 C
1352 15-02-2019 16:35:00 10.6 C 70 % 5.36 C
1353 15-02-2019 16:40:00 10.3 C 70 % 5.08 C
1354 15-02-2019 16:45:00 10.2 C 70 % 4.98 C
1355 15-02-2019 16:50:00 10.2 C 71 % 5.18 C
1356 15-02-2019 16:55:00 10.1 C 71 % 5.09 C
1357 15-02-2019 17:00:00 10 C 71 % 4.99 C
1358 15-02-2019 17:05:00 9.9 C 71 % 4.9 C
1359 15-02-2019 17:10:00 9.9 C 71 % 4.9 C
1360 15-02-2019 17:15:00 9.8 C 71 % 4.8 C
1361 15-02-2019 17:20:00 9.7 C 71 % 4.7 C
1362 15-02-2019 17:25:00 9.6 C 71 % 4.61 C
1363 15-02-2019 17:30:00 9.4 C 72 % 4.62 C
1364 15-02-2019 17:35:00 9.3 C 71 % 4.32 C
1365 15-02-2019 17:40:00 9 C 72 % 4.23 C
1366 15-02-2019 17:45:00 8.8 C 73 % 4.24 C
1367 15-02-2019 17:50:00 8.6 C 73 % 4.04 C
1368 15-02-2019 17:55:00 8.3 C 73 % 3.75 C
1369 15-02-2019 18:00:00 8.1 C 74 % 3.75 C
1370 15-02-2019 18:05:00 7.8 C 74 % 3.46 C
1371 15-02-2019 18:10:00 7.7 C 75 % 3.56 C
1372 15-02-2019 18:15:00 7.6 C 75 % 3.46 C
1373 15-02-2019 18:20:00 7.4 C 76 % 3.45 C
1374 15-02-2019 18:25:00 7.3 C 76 % 3.36 C
1375 15-02-2019 18:30:00 7.1 C 76 % 3.16 C
Sensor: Nr:Datum:Temp:Feuchte:Taupunkt:
Aussen-T/F 1376 15-02-2019 18:35:00 7 C 77 % 3.25 C
1377 15-02-2019 18:40:00 6.9 C 77 % 3.16 C
1378 15-02-2019 18:45:00 6.9 C 77 % 3.16 C
1379 15-02-2019 18:50:00 6.8 C 77 % 3.06 C
1380 15-02-2019 18:55:00 6.7 C 78 % 3.14 C
1381 15-02-2019 19:00:00 6.6 C 78 % 3.05 C
1382 15-02-2019 19:05:00 6.6 C 78 % 3.05 C
1383 15-02-2019 19:10:00 6.4 C 79 % 3.03 C
1384 15-02-2019 19:15:00 6.3 C 79 % 2.93 C
1385 15-02-2019 19:20:00 6.3 C 80 % 3.11 C
1386 15-02-2019 19:25:00 6.3 C 80 % 3.11 C
1387 15-02-2019 19:30:00 6.2 C 80 % 3.01 C
1388 15-02-2019 19:35:00 6.2 C 81 % 3.19 C
1389 15-02-2019 19:40:00 6.1 C 80 % 2.92 C
1390 15-02-2019 19:45:00 5.9 C 80 % 2.72 C
1391 15-02-2019 19:50:00 5.7 C 81 % 2.7 C
1392 15-02-2019 19:55:00 5.4 C 81 % 2.41 C
1393 15-02-2019 20:00:00 5.2 C 82 % 2.39 C
1394 15-02-2019 20:05:00 5.1 C 84 % 2.63 C
1395 15-02-2019 20:10:00 4.9 C 84 % 2.43 C
1396 15-02-2019 20:15:00 4.8 C 84 % 2.33 C
1397 15-02-2019 20:20:00 4.7 C 84 % 2.23 C
1398 15-02-2019 20:25:00 4.6 C 84 % 2.14 C
1399 15-02-2019 20:30:00 4.4 C 84 % 1.94 C
1400 15-02-2019 20:35:00 4.2 C 85 % 1.91 C
Sensor: Nr:Datum:Temp:Feuchte:Taupunkt:
Aussen-T/F 1401 15-02-2019 20:40:00 4.1 C 85 % 1.81 C
1402 15-02-2019 20:45:00 3.9 C 86 % 1.78 C
1403 15-02-2019 20:50:00 3.9 C 85 % 1.61 C
1404 15-02-2019 20:55:00 3.8 C 87 % 1.84 C
1405 15-02-2019 21:00:00 3.7 C 87 % 1.74 C
1406 15-02-2019 21:05:00 3.6 C 88 % 1.8 C
1407 15-02-2019 21:10:00 3.4 C 87 % 1.45 C
1408 15-02-2019 21:15:00 3.3 C 88 % 1.51 C
1409 15-02-2019 21:20:00 3.3 C 89 % 1.67 C
1410 15-02-2019 21:25:00 3.3 C 89 % 1.67 C
1411 15-02-2019 21:30:00 3.2 C 88 % 1.41 C
1412 15-02-2019 21:35:00 3.1 C 88 % 1.31 C
1413 15-02-2019 21:40:00 2.9 C 88 % 1.11 C
1414 15-02-2019 21:45:00 2.8 C 89 % 1.17 C
1415 15-02-2019 21:50:00 2.7 C 89 % 1.07 C
1416 15-02-2019 21:55:00 2.6 C 89 % 0.97 C
1417 15-02-2019 22:00:00 2.4 C 89 % 0.78 C
1418 15-02-2019 22:05:00 2.4 C 90 % 0.93 C
1419 15-02-2019 22:10:00 2.3 C 89 % 0.68 C
1420 15-02-2019 22:15:00 2.1 C 90 % 0.64 C
1421 15-02-2019 22:20:00 1.9 C 90 % 0.44 C
1422 15-02-2019 22:25:00 1.8 C 90 % 0.34 C
1423 15-02-2019 22:30:00 1.7 C 90 % 0.24 C
1424 15-02-2019 22:35:00 1.7 C 91 % 0.39 C
1425 15-02-2019 22:40:00 1.6 C 91 % 0.29 C
Sensor: Nr:Datum:Temp:Feuchte:Taupunkt:
Aussen-T/F 1426 15-02-2019 22:45:00 1.5 C 91 % 0.19 C
1427 15-02-2019 22:50:00 1.4 C 91 % 0.1 C
1428 15-02-2019 22:55:00 1.4 C 92 % 0.25 C
1429 15-02-2019 23:00:00 1.4 C 92 % 0.25 C
1430 15-02-2019 23:05:00 1.4 C 92 % 0.25 C
1431 15-02-2019 23:10:00 1.4 C 92 % 0.25 C
1432 15-02-2019 23:15:00 1.4 C 92 % 0.25 C
1433 15-02-2019 23:20:00 1.3 C 92 % 0.15 C
1434 15-02-2019 23:25:00 1.3 C 92 % 0.15 C
1435 15-02-2019 23:30:00 1.2 C 92 % 0.05 C
1436 15-02-2019 23:35:00 1.2 C 92 % 0.05 C
1437 15-02-2019 23:40:00 1.2 C 93 % 0.2 C
1438 15-02-2019 23:45:00 1.2 C 92 % 0.05 C
1439 15-02-2019 23:50:00 1 C 92 % -0.15 C
1440 15-02-2019 23:55:00 0.8 C 92 % -0.35 C

Legende:
   Min
   Max


Maximal/Minimal-Werte vom 11.02.2019 - 15.02.2019

Sensor Min Max Avg
Temp
(Aussen-T/F)
-2.7 °C
14-02-2019  07:00:00
11.3 °C
15-02-2019  16:15:00
2.7 °C
Feuchte
(Aussen-T/F)
64 %
15-02-2019  16:05:00
97 %
14-02-2019  11:30:00
89.36 %
Taupunkt
(Aussen-T/F)
-3.39 C
14-02-2019  07:00:00
6.05 C
15-02-2019  15:20:00
1.07 C

Die Daten stammen von einer Davis Vantage Pro 2 Wetter-Station und werden unter Linux mit der Software wview2wettercgi und aufbereitet. Alle Angaben erfolgen ohne Gewähr für ihre Vollständigkeit oder Richtigkeit.
Kontakt: Rainer Krienke krienke@uni-koblenz.de . Meine Webseiten an der Uni Koblenz oder privat.
Version: $Revision: 0.78 $